Laatste waarneming: 15:55
Temperatuur:6,8°C
Dauwpunt:3,9°C
Rel. vocht:82,0%
Natte-bol:5,6°C
Wind (gem. 10 min.):14,8 m/s
Wind (max. 10 min.): m/s
Windrichting:280°
Neerslagsom:0,0 mm
Neerslagintensiteit:0,0 mm/u
Luchtdruk:1015,7 hPa
Straling:21,6 W/m2
 
Maximumtemp.:7,2°C (15:39)
Minimumtemp.:5,8°C (07:57)
Hoogste windstoot:25,5 m/s (05:07)


Bekijk de verwachting.

Bekijk de grafieken.
Bekijk het maandoverzicht.
Bekijk het jaaroverzicht.
Dagtabel
Tijd Temp. Dauwp. Natte-bol Rel. Hum. Windsnelh. Windricht. Windstoot Neerslag Straling Luchtdruk
 
15:55 6,8 3,9 5,6 82,0 14,8 280 - 0,0 22 1.015,7
15:54 6,8 3,9 5,6 82,0 14,7 278 - 0,0 21 1.015,7
15:53 6,8 3,9 5,6 82,0 14,7 276 - 0,0 23 1.015,6
15:52 6,8 3,9 5,6 82,0 14,9 275 - 0,0 25 1.015,7
15:51 6,9 4,0 5,7 82,0 14,8 273 - 0,0 28 1.015,7
15:50 7,0 4,1 5,8 82,0 14,6 272 - 0,0 30 1.015,7
15:49 7,0 4,1 5,8 81,6 14,8 272 - 0,0 30 1.015,6
15:48 7,1 4,1 5,8 81,0 15,2 272 - 0,0 28 1.015,6
15:47 7,1 4,1 5,8 81,0 15,6 272 - 0,0 25 1.015,6
15:46 7,1 4,2 5,9 81,8 15,8 273 - 0,0 20 1.015,5
15:45 7,0 4,1 5,8 82,0 15,7 273 - 0,0 21 1.015,5
15:44 7,1 4,2 5,9 82,0 15,5 273 - 0,0 25 1.015,5
15:43 7,0 4,1 5,8 82,0 15,6 273 - 0,0 34 1.015,6
15:42 7,1 4,2 5,9 82,0 15,8 273 - 0,0 39 1.015,6
15:41 7,1 4,2 5,9 82,0 15,9 272 - 0,0 37 1.015,6
15:40 7,0 4,1 5,8 82,0 16,0 272 - 0,0 36 1.015,6
15:39 7,2 4,5 6,1 83,0 15,6 272 - 0,0 33 1.015,6
15:38 6,9 4,1 5,8 82,6 14,9 271 - 0,0 38 1.015,6
15:37 6,9 4,0 5,7 82,0 14,6 271 - 0,0 49 1.015,7
15:36 6,9 4,0 5,7 82,0 14,7 270 - 0,0 43 1.015,5
15:35 6,9 4,2 5,8 82,7 15,1 270 18,8 0,0 50 1.015,5
15:34 6,9 4,2 5,8 83,0 15,4 268 - 0,0 69 1.015,6
15:33 6,9 4,2 5,8 83,0 15,5 268 - 0,0 80 1.015,5
15:32 7,0 4,3 5,9 83,0 15,6 267 - 0,0 85 1.015,5
15:31 7,0 4,3 5,9 83,0 15,5 268 - 0,0 73 1.015,5
15:30 7,0 4,2 5,8 82,4 15,5 268 - 0,0 48 1.015,5
15:29 7,0 4,1 5,8 82,0 15,6 268 - 0,0 55 1.015,5
15:28 7,0 4,2 5,8 82,2 15,9 269 - 0,0 71 1.015,5
15:27 7,0 4,3 5,9 83,0 16,0 270 - 0,0 95 1.015,5
15:26 6,9 4,2 5,8 82,7 15,8 270 - 0,0 95 1.015,6
15:25 7,0 4,1 5,8 82,0 15,3 270 - 0,0 94 1.015,6
15:24 7,1 4,2 5,9 82,0 15,4 270 - 0,0 87 1.015,6
15:23 7,1 4,2 5,9 82,0 15,9 270 - 0,0 74 1.015,5
15:22 7,1 4,2 5,9 82,0 16,4 270 - 0,0 64 1.015,4
15:21 7,0 4,1 5,8 82,0 16,5 270 - 0,0 59 1.015,5
15:20 7,0 4,1 5,8 82,0 16,1 270 - 0,0 50 1.015,4
15:19 7,0 4,1 5,8 82,0 16,0 271 - 0,0 45 1.015,4
15:18 7,0 4,1 5,8 82,0 15,7 271 - 0,0 49 1.015,5
15:17 7,0 4,1 5,8 82,0 16,1 271 - 0,0 49 1.015,4
15:16 7,1 4,2 5,9 82,0 16,4 272 - 0,0 54 1.015,4
15:15 7,0 4,1 5,8 82,0 16,9 273 - 0,0 60 1.015,4
15:14 7,0 4,2 5,8 82,4 17,1 273 - 0,0 69 1.015,4
15:13 6,9 4,2 5,8 83,0 16,9 273 - 0,0 78 1.015,4
15:12 6,9 4,2 5,8 83,0 16,3 273 - 0,0 68 1.015,4
15:11 6,8 4,1 5,7 83,0 15,6 274 - 0,0 69 1.015,4
15:10 6,9 4,1 5,7 82,1 15,6 274 - 0,0 74 1.015,5
15:09 6,9 4,1 5,7 82,3 16,1 274 - 0,0 72 1.015,4
15:08 6,9 4,1 5,8 82,6 16,4 273 - 0,0 65 1.015,3
15:07 6,9 4,0 5,7 82,0 16,4 273 - 0,0 63 1.015,4
15:06 6,9 4,0 5,7 82,0 16,3 272 - 0,0 68 1.015,3
15:05 6,9 4,0 5,7 82,0 16,2 272 - 0,0 67 1.015,3
15:04 7,0 4,1 5,8 82,0 16,1 272 - 0,0 83 1.015,4
15:03 7,0 4,1 5,8 82,0 16,5 272 - 0,0 98 1.015,3
15:02 6,9 4,0 5,7 82,0 16,8 273 - 0,0 95 1.015,3
15:01 6,9 4,0 5,7 82,0 16,3 274 - 0,0 119 1.015,4
15:00 6,9 4,0 5,7 82,0 15,7 274 - 0,0 125 1.015,4
 
14:59 6,9 4,0 5,7 82,0 15,7 274 - 0,0 73 1.015,4
14:58 6,8 3,9 5,6 82,0 15,5 273 - 0,0 69 1.015,5
14:57 6,8 3,9 5,6 82,0 15,4 272 - 0,0 82 1.015,5
14:56 6,8 3,9 5,6 82,0 15,2 271 - 0,0 82 1.015,5
14:55 6,8 3,9 5,6 82,0 15,2 270 - 0,0 60 1.015,5
14:54 6,9 4,0 5,7 82,0 15,4 269 - 0,0 66 1.015,5
14:53 6,9 4,0 5,7 82,0 16,2 268 - 0,0 54 1.015,4
14:52 6,9 4,0 5,7 82,0 16,7 267 - 0,0 59 1.015,3
14:51 6,9 4,0 5,7 82,0 16,6 267 - 0,0 55 1.015,4
14:50 6,9 4,0 5,7 82,0 16,0 267 - 0,0 55 1.015,4
14:49 6,9 3,9 5,7 81,4 15,7 266 - 0,0 62 1.015,4
14:48 7,0 4,0 5,7 81,0 16,0 266 - 0,0 56 1.015,3
14:47 7,0 4,0 5,7 81,0 16,8 267 - 0,0 59 1.015,2
14:46 7,0 4,0 5,7 81,0 17,4 268 20,6 0,0 60 1.015,3
14:45 7,0 4,0 5,7 81,0 17,5 270 20,6 0,0 63 1.015,3
14:44 7,0 4,0 5,7 81,0 17,3 272 - 0,0 120 1.015,2
14:43 7,0 4,0 5,7 81,0 17,3 274 - 0,0 70 1.015,2
14:42 7,0 4,0 5,7 81,0 17,5 275 - 0,0 67 1.015,2
14:41 7,0 4,0 5,7 81,0 17,7 276 - 0,0 68 1.015,3
14:40 6,9 3,9 5,6 81,0 17,2 276 - 0,0 64 1.015,4
14:39 6,9 3,9 5,6 81,0 16,8 274 - 0,0 77 1.015,5
14:38 7,0 4,0 5,7 81,0 16,8 271 - 0,0 68 1.015,3
14:37 7,0 4,0 5,7 81,0 17,1 268 - 0,0 76 1.015,2
14:36 7,0 4,0 5,7 81,0 17,3 266 - 0,0 79 1.015,2
14:35 7,0 4,0 5,7 81,0 17,8 265 - 0,0 81 1.015,1
14:34 7,0 4,0 5,7 81,0 17,7 265 - 0,0 82 1.015,1
14:33 7,0 4,0 5,7 81,0 17,4 266 - 0,0 94 1.015,1
14:32 6,9 4,0 5,7 81,5 17,3 267 - 0,0 104 1.015,1
14:31 6,9 4,0 5,7 82,0 16,8 269 - 0,0 75 1.015,1
14:30 6,9 4,0 5,7 82,0 16,9 270 - 0,0 48 1.015,2
14:29 6,9 4,0 5,7 82,0 17,0 270 - 0,0 46 1.015,2
14:28 6,9 4,0 5,7 82,0 17,3 270 - 0,0 49 1.015,2
14:27 6,8 3,9 5,6 82,0 17,0 269 20,1 0,0 47 1.015,2
14:26 6,8 3,9 5,6 82,0 16,4 268 - 0,0 43 1.015,3
14:25 6,8 3,9 5,6 82,0 16,0 267 - 0,0 49 1.015,2
14:24 6,8 3,9 5,6 82,0 15,5 266 - 0,0 46 1.015,3
14:23 6,8 3,9 5,6 81,9 15,0 266 - 0,0 37 1.015,4
14:22 6,9 3,9 5,6 81,0 15,1 266 - 0,0 31 1.015,3
14:21 7,0 4,0 5,7 81,0 16,1 266 - 0,0 29 1.015,2
14:20 7,1 4,1 5,8 81,0 17,2 267 - 0,0 32 1.015,2
14:19 7,1 4,1 5,8 81,0 18,1 268 - 0,0 30 1.015,1
14:18 7,0 4,0 5,7 81,0 18,6 269 - 0,0 36 1.015,1
14:17 6,9 3,9 5,6 81,0 18,4 270 - 0,0 50 1.015,2
14:16 7,1 4,1 5,9 81,3 18,0 270 - 0,0 54 1.015,1
14:15 6,8 3,9 5,6 82,0 17,4 271 21,0 0,0 45 1.015,2
14:14 6,9 4,0 5,7 82,0 17,1 271 - 0,0 37 1.015,2
14:13 6,8 3,9 5,6 82,0 17,0 271 - 0,0 32 1.015,2
14:12 6,8 3,9 5,6 82,0 17,2 271 - 0,0 25 1.015,2
14:11 6,9 4,0 5,7 82,0 17,2 272 - 0,0 26 1.015,2
14:10 6,9 4,0 5,7 82,0 17,2 273 - 0,0 27 1.015,1
14:09 6,9 4,0 5,7 82,0 17,6 274 - 0,0 20 1.015,1
14:08 6,8 3,9 5,6 82,0 17,6 275 - 0,0 25 1.015,2
14:07 6,8 3,9 5,6 82,0 17,3 275 - 0,0 34 1.015,2
14:06 6,7 4,0 5,6 82,9 16,8 274 - 0,0 37 1.015,3
14:05 6,6 3,9 5,5 83,0 16,2 273 - 0,0 30 1.015,3
14:04 6,6 3,9 5,5 82,7 15,4 271 - 0,0 28 1.015,4
14:03 6,6 3,7 5,4 82,0 15,1 269 - 0,0 30 1.015,4
14:02 6,7 3,8 5,5 82,0 15,5 267 - 0,0 21 1.015,3
14:01 6,7 3,8 5,5 82,0 16,1 266 - 0,0 19 1.015,3
14:00 6,7 3,8 5,5 82,0 16,3 266 - 0,0 18 1.015,3
 
13:59 6,8 3,9 5,6 82,0 16,5 265 - 0,0 20 1.015,3
13:58 6,8 3,9 5,6 82,0 16,8 265 - 0,0 20 1.015,2
13:57 6,7 3,8 5,5 82,0 16,5 266 20,1 0,0 19 1.015,2
13:56 6,7 3,8 5,5 82,0 15,7 268 - 0,0 19 1.015,4
13:55 6,8 3,9 5,6 82,0 15,2 269 - 0,0 19 1.015,3
13:54 6,8 3,9 5,6 82,0 15,8 269 - 0,0 18 1.015,3
13:53 6,8 3,9 5,6 82,0 16,8 270 - 0,0 15 1.015,2
13:52 6,8 3,9 5,6 82,0 16,9 269 20,1 0,0 18 1.015,2
13:51 6,9 4,0 5,7 82,0 16,4 268 - 0,0 24 1.015,2
13:50 6,8 3,9 5,6 82,0 15,9 267 - 0,0 25 1.015,3
13:49 6,8 3,9 5,6 82,0 16,3 264 - 0,0 21 1.015,2
13:48 6,8 3,9 5,6 82,0 16,5 262 - 0,0 17 1.015,2
13:47 6,8 3,9 5,6 82,0 16,5 260 - 0,0 19 1.015,2
13:46 6,7 3,8 5,5 82,0 15,6 260 - 0,0 21 1.015,1
13:45 6,7 3,8 5,5 82,0 15,0 262 - 0,0 29 1.015,2
13:44 6,8 3,8 5,6 81,3 15,0 263 18,3 0,0 32 1.015,1
13:43 6,8 3,8 5,5 81,0 16,4 265 - 0,0 26 1.015,1
13:42 6,8 3,9 5,6 82,0 16,1 266 - 0,0 23 1.015,2
13:41 6,7 3,8 5,5 82,0 15,9 267 - 0,0 26 1.015,2
13:40 6,7 3,8 5,5 82,0 15,9 266 - 0,0 34 1.015,1
13:39 6,7 3,8 5,5 82,0 16,2 265 - 0,0 35 1.015,0
13:38 6,7 3,8 5,5 82,0 16,4 264 - 0,0 33 1.015,0
13:37 6,8 3,8 5,5 81,2 17,1 263 - 0,0 34 1.014,9
13:36 6,7 3,8 5,5 81,8 17,5 263 - 0,0 37 1.015,0
13:35 6,7 3,7 5,4 81,0 17,0 262 - 0,0 41 1.015,1
13:34 6,8 3,9 5,6 81,5 16,7 260 - 0,0 35 1.015,0
13:33 6,7 3,8 5,5 82,0 17,1 257 - 0,0 39 1.015,0
13:32 6,7 3,8 5,5 82,0 16,8 254 - 0,0 47 1.015,1
13:31 6,6 3,7 5,4 82,0 15,8 252 - 0,0 54 1.015,1
13:30 6,6 3,7 5,4 82,0 15,3 250 19,7 0,0 59 1.015,2
13:29 6,6 3,7 5,4 82,0 15,0 249 - 0,0 59 1.015,2
13:28 6,6 3,7 5,4 82,0 14,2 249 17,4 0,0 60 1.015,3
13:27 6,6 3,7 5,4 82,0 13,9 251 - 0,0 59 1.015,2
13:26 6,6 3,6 5,4 81,3 14,5 253 - 0,0 48 1.015,2
13:25 6,6 3,7 5,4 81,9 15,3 254 - 0,0 48 1.015,2
13:24 6,7 3,7 5,4 81,0 15,5 256 - 0,0 50 1.015,1
13:23 6,7 3,7 5,4 81,0 15,7 257 - 0,0 49 1.015,1
13:22 6,7 3,7 5,4 81,0 15,7 258 - 0,0 45 1.015,2
13:21 6,7 3,8 5,5 81,6 15,5 258 - 0,0 42 1.015,1
13:20 6,7 3,7 5,5 81,3 15,1 258 19,2 0,0 54 1.015,2
13:19 6,7 3,7 5,4 81,0 14,8 259 - 0,0 58 1.015,2
13:18 6,7 3,7 5,5 81,3 15,1 261 - 0,0 59 1.015,2
13:17 6,8 3,9 5,6 82,0 16,0 262 - 0,0 57 1.015,1
13:16 6,7 3,8 5,5 82,0 16,2 264 - 0,0 54 1.015,1
13:15 6,5 3,6 5,3 82,0 15,9 263 - 0,0 68 1.015,3
13:14 6,7 3,8 5,5 82,0 15,5 262 - 0,0 85 1.015,3
13:13 6,6 3,7 5,4 82,0 14,9 259 - 0,0 88 1.015,2
13:12 6,5 3,6 5,3 82,0 14,2 256 - 0,0 76 1.015,2
13:11 6,5 3,7 5,3 82,4 14,0 253 17,4 0,0 67 1.015,2
13:10 6,5 3,7 5,3 82,3 14,1 251 - 0,0 65 1.015,3
13:09 6,5 3,6 5,3 82,0 14,6 251 - 0,0 71 1.015,2
13:08 6,4 3,6 5,2 82,0 15,1 251 - 0,0 80 1.015,2
13:07 6,5 3,7 5,3 82,1 15,5 253 - 0,0 78 1.015,2
13:06 6,5 3,8 5,4 82,8 15,5 253 - 0,0 73 1.015,2
13:05 6,5 3,7 5,3 82,4 15,3 254 - 0,0 71 1.015,3
13:04 6,4 3,6 5,3 82,5 15,4 254 - 0,0 70 1.015,2
13:03 6,4 3,6 5,2 82,0 15,6 255 - 0,0 82 1.015,3
13:02 6,4 3,6 5,2 82,0 15,4 258 - 0,0 92 1.015,3
13:01 6,5 3,6 5,3 82,0 15,3 259 - 0,0 100 1.015,2
13:00 6,5 3,7 5,3 82,3 15,7 259 - 0,0 107 1.015,1
 
12:59 6,5 3,8 5,4 83,0 16,4 257 - 0,0 103 1.015,2
12:58 6,4 3,6 5,3 82,5 16,1 254 - 0,0 98 1.015,2
12:57 6,4 3,6 5,2 82,0 12,4 252 17,9 0,0 90 1.015,3
12:56 6,4 3,7 5,3 82,9 11,4 250 17,9 0,0 85 1.015,3
12:55 6,4 3,7 5,3 83,0 11,6 248 16,5 0,0 84 1.015,3
12:54 6,3 3,6 5,2 83,0 15,1 249 - 0,0 71 1.015,3
12:53 6,3 3,6 5,2 83,0 14,8 252 - 0,0 52 1.015,4
12:52 6,3 3,6 5,2 83,0 14,4 256 - 0,0 49 1.015,4
12:51 6,3 3,6 5,2 83,0 14,3 258 - 0,0 47 1.015,4
12:50 6,3 3,8 5,3 83,9 14,5 258 - 0,0 44 1.015,4
12:49 6,2 3,7 5,2 84,0 14,3 259 - 0,0 45 1.015,4
12:48 6,2 3,7 5,2 84,0 14,1 259 - 0,0 60 1.015,5
12:47 6,3 3,8 5,3 84,0 14,8 259 - 0,0 65 1.015,4
12:46 6,3 3,8 5,3 84,0 15,9 259 - 0,0 57 1.015,3
12:45 6,3 3,8 5,3 84,0 16,6 260 - 0,0 58 1.015,1
12:44 6,3 3,8 5,3 84,0 16,7 262 - 0,0 60 1.015,2
12:43 6,3 3,8 5,3 84,0 16,7 264 - 0,0 63 1.015,2
12:42 6,3 3,8 5,3 84,0 16,7 266 19,7 0,0 67 1.015,0
12:41 6,3 3,8 5,3 84,0 16,7 266 - 0,0 77 1.015,0
12:40 6,3 3,7 5,2 83,4 16,9 265 - 0,0 79 1.015,0
12:39 6,3 3,6 5,2 83,0 16,9 262 20,6 0,0 78 1.014,9
12:38 6,3 3,6 5,2 83,0 16,8 258 20,1 0,0 78 1.015,1
12:37 6,4 3,7 5,3 83,0 16,6 254 - 0,0 77 1.015,1
12:36 6,4 3,7 5,3 83,0 16,6 251 19,7 0,0 81 1.015,1
12:35 6,5 3,7 5,4 82,5 16,9 250 - 0,0 86 1.015,0
12:34 6,5 3,6 5,3 82,0 17,4 251 - 0,0 77 1.015,0
12:33 6,5 3,6 5,3 82,0 18,2 253 - 0,0 71 1.015,0
12:32 6,6 3,7 5,4 82,0 18,4 255 21,9 0,0 83 1.014,9
12:31 6,5 3,6 5,3 82,0 18,1 257 - 0,0 99 1.015,1
12:30 6,5 3,6 5,3 82,0 17,8 257 - 0,0 96 1.015,2
12:29 6,5 3,6 5,3 82,0 17,4 256 - 0,0 85 1.015,1
12:28 6,4 3,6 5,2 82,0 16,6 255 - 0,0 94 1.015,2
12:27 6,5 3,6 5,3 82,0 15,9 254 19,7 0,0 102 1.015,2
12:26 6,5 3,6 5,3 82,0 16,2 254 20,1 0,0 86 1.015,2
12:25 6,4 3,6 5,2 82,0 16,6 254 - 0,0 70 1.015,2
12:24 6,4 3,6 5,2 82,0 16,2 255 19,2 0,0 69 1.015,3
12:23 6,4 3,6 5,2 82,0 15,5 256 18,8 0,0 66 1.015,3
12:22 6,5 3,6 5,3 82,0 15,6 256 - 0,0 68 1.015,2
12:21 6,5 3,6 5,3 82,0 15,5 256 18,8 0,0 73 1.015,2
12:20 6,5 3,6 5,3 81,9 15,3 256 21,0 0,0 77 1.015,2
12:19 6,5 3,5 5,2 81,0 15,8 256 - 0,0 79 1.015,1
12:18 6,5 3,5 5,3 81,4 17,2 256 23,7 0,0 83 1.015,1
12:17 6,3 3,5 5,1 82,0 17,4 256 25,5 0,0 82 1.015,3
12:16 6,3 3,5 5,1 82,0 15,9 257 - 0,0 59 1.015,3
12:15 6,4 3,6 5,2 82,0 15,0 256 25,5 0,0 47 1.015,3
12:14 6,3 3,5 5,1 82,2 15,5 255 19,2 0,0 39 1.015,3
12:13 6,3 3,6 5,2 83,0 15,8 254 19,2 0,0 34 1.015,3
12:12 6,2 3,5 5,1 83,0 15,5 254 - 0,0 35 1.015,3
12:11 6,2 3,5 5,1 83,0 15,1 253 - 0,0 35 1.015,4
12:10 6,2 3,5 5,1 83,0 14,9 252 - 0,0 34 1.015,5
12:09 6,2 3,4 5,0 82,0 15,0 250 - 0,0 27 1.015,5
12:08 6,3 3,5 5,1 82,0 15,0 247 - 0,0 26 1.015,4
12:07 6,3 3,5 5,1 82,0 15,2 244 - 0,0 29 1.015,4
12:06 6,3 3,5 5,1 82,0 15,9 241 - 0,0 26 1.015,3
12:05 6,3 3,6 5,2 82,6 16,9 241 20,1 0,0 28 1.015,3
12:04 6,2 3,5 5,1 83,0 15,6 241 18,8 0,0 29 1.015,4
12:03 6,2 3,5 5,1 83,0 14,9 242 18,3 0,0 35 1.015,5
12:02 6,2 3,5 5,1 83,0 15,8 245 18,8 0,0 37 1.015,5
12:01 6,2 3,5 5,1 83,0 15,8 248 - 0,0 33 1.015,6
12:00 6,2 3,5 5,1 83,0 15,8 250 - 0,0 32 1.015,6
 
11:59 6,2 3,5 5,1 83,0 16,1 251 - 0,0 29 1.015,5
11:58 6,2 3,5 5,1 83,0 16,2 253 19,7 0,0 35 1.015,4
11:57 6,2 3,5 5,1 83,0 15,8 253 - 0,0 40 1.015,6
11:56 6,2 3,4 5,0 82,0 14,6 251 - 0,0 42 1.015,6
11:55 6,2 3,4 5,1 82,4 14,6 249 - 0,0 39 1.015,6
11:54 6,2 3,5 5,1 83,0 14,4 246 17,9 0,0 39 1.015,5
11:53 6,2 3,5 5,1 83,0 15,0 244 18,8 0,0 40 1.015,6
11:52 6,2 3,5 5,1 83,0 13,2 242 18,8 0,0 45 1.015,5
11:51 6,2 3,5 5,1 83,0 12,9 240 18,3 0,0 60 1.015,5
11:50 6,1 3,4 5,0 83,0 14,3 240 17,9 0,0 55 1.015,6
11:49 6,1 3,4 5,0 83,0 14,6 242 - 0,0 53 1.015,7
11:48 6,1 3,4 5,0 83,0 14,5 245 - 0,0 50 1.015,7
11:47 6,1 3,4 5,0 83,0 14,5 247 - 0,0 49 1.015,7
11:46 6,1 3,4 5,0 83,0 14,7 249 - 0,0 44 1.015,7
11:45 6,1 3,4 5,0 83,0 15,0 250 - 0,0 36 1.015,7
11:44 6,1 3,4 5,0 83,0 15,1 252 - 0,0 28 1.015,7
11:43 6,1 3,4 5,0 83,0 15,1 252 - 0,0 25 1.015,7
11:42 6,1 3,4 5,0 83,0 15,2 253 - 0,0 28 1.015,7
11:41 6,0 3,5 5,0 83,7 15,5 254 - 0,0 45 1.015,7
11:40 6,0 3,5 5,0 84,0 15,3 255 19,2 0,0 54 1.015,8
11:39 6,0 3,3 4,9 83,1 14,4 257 - 0,0 50 1.015,8
11:38 6,0 3,3 4,9 83,0 13,8 259 - 0,0 47 1.015,9
11:37 6,0 3,3 4,9 83,0 14,2 261 - 0,0 37 1.015,9
11:36 6,0 3,3 4,9 83,0 14,6 262 - 0,0 30 1.015,8
11:35 6,0 3,3 4,9 83,0 14,8 262 18,8 0,0 26 1.015,9
11:34 6,0 3,3 4,9 83,0 14,5 261 - 0,0 30 1.015,9
11:33 6,0 3,3 4,9 83,0 14,3 259 - 0,0 31 1.015,9
11:32 6,0 3,4 4,9 83,3 14,2 257 - 0,0 40 1.015,9
11:31 5,9 3,3 4,8 83,6 13,8 254 17,0 0,0 62 1.015,9
11:30 6,0 3,3 4,9 83,0 13,9 253 - 0,0 62 1.015,9
11:29 6,0 3,3 4,9 83,0 14,0 253 - 0,0 48 1.015,8
11:28 6,0 3,3 4,9 83,0 14,6 254 - 0,0 45 1.015,9
11:27 6,1 3,4 5,0 83,0 14,7 254 - 0,0 42 1.015,8
11:26 6,0 3,3 4,9 83,0 15,0 255 - 0,0 40 1.015,8
11:25 6,0 3,3 4,9 83,0 15,2 255 - 0,0 34 1.015,8
11:24 6,0 3,3 4,9 83,0 15,3 255 - 0,0 32 1.015,7
11:23 6,0 3,3 4,9 83,0 15,2 254 - 0,0 33 1.015,8
11:22 6,0 3,3 4,9 83,0 15,0 255 18,8 0,0 37 1.015,8
11:21 6,0 3,4 4,9 83,2 15,0 256 - 0,0 41 1.015,8
11:20 6,0 3,5 5,0 84,0 14,7 257 - 0,0 39 1.015,7
11:19 6,0 3,4 4,9 83,6 14,8 258 - 0,0 33 1.015,7
11:18 6,0 3,3 4,9 83,0 14,6 258 - 0,0 26 1.015,7
11:17 6,0 3,3 4,9 83,0 14,9 258 - 0,0 24 1.015,8
11:16 6,0 3,3 4,9 83,0 15,4 258 - 0,0 25 1.015,7
11:15 6,1 3,5 5,0 83,2 16,0 258 - 0,0 28 1.015,7
11:14 6,0 3,4 4,9 83,5 15,8 258 - 0,0 34 1.015,7
11:13 6,0 3,3 4,9 83,0 16,0 258 - 0,0 39 1.015,6
11:12 6,0 3,5 5,0 83,7 16,1 258 19,7 0,0 35 1.015,5
11:11 5,9 3,4 4,9 84,0 16,5 256 - 0,0 34 1.015,7
11:10 6,0 3,5 5,0 84,0 16,1 255 19,2 0,0 28 1.015,6
11:09 5,9 3,4 4,9 84,0 16,5 253 19,7 0,0 26 1.015,7
11:08 5,9 3,4 4,9 84,0 16,0 252 20,1 0,0 21 1.015,7
11:07 5,9 3,4 4,9 84,0 15,3 251 - 0,0 18 1.015,8
11:06 5,9 3,4 4,9 84,0 14,5 251 - 0,0 20 1.015,8
11:05 6,0 3,3 4,9 83,1 14,2 252 - 0,0 26 1.015,8
11:04 6,0 3,3 4,9 83,0 13,9 252 - 0,0 28 1.015,9
11:03 6,1 3,4 5,0 82,8 14,3 251 - 0,0 28 1.015,8
11:02 6,1 3,3 5,0 82,4 14,7 251 - 0,0 27 1.015,7
11:01 6,0 3,3 4,9 83,0 14,0 253 17,9 0,0 29 1.015,7
11:00 6,0 3,3 4,9 83,0 13,1 257 17,4 0,0 30 1.015,8
 
10:59 6,0 3,3 4,9 83,0 7,9 259 15,2 0,0 32 1.015,8
10:58 6,0 3,3 4,9 83,0 9,4 259 16,5 0,0 33 1.015,7
10:57 6,0 3,3 4,9 83,0 9,8 259 16,5 0,0 32 1.015,8
10:56 6,0 3,3 4,9 83,0 13,4 258 - 0,0 33 1.015,8
10:55 6,1 3,4 5,0 83,0 13,1 256 - 0,0 35 1.015,8
10:54 6,1 3,4 5,0 83,0 13,4 254 - 0,0 33 1.015,7
10:53 6,1 3,4 5,0 83,0 14,2 254 - 0,0 28 1.015,6
10:52 6,1 3,4 5,0 83,0 14,8 256 - 0,0 25 1.015,7
10:51 6,0 3,3 4,9 83,0 14,6 256 18,8 0,0 25 1.015,8
10:50 6,0 3,3 4,9 83,0 14,1 255 - 0,0 24 1.015,8
10:49 6,1 3,4 5,0 83,0 14,0 252 - 0,0 25 1.015,8
10:48 6,1 3,4 5,0 83,0 14,1 249 - 0,0 29 1.015,7
10:47 6,1 3,4 5,0 83,0 14,3 244 - 0,0 36 1.015,7
10:46 6,1 3,4 5,0 83,0 14,3 239 - 0,0 40 1.015,8
10:45 6,1 3,4 5,0 83,0 13,3 236 - 0,0 43 1.015,8
10:44 6,1 3,4 5,0 83,0 13,1 235 - 0,0 46 1.015,8
10:43 6,1 3,4 5,0 83,0 13,8 235 - 0,0 44 1.015,7
10:42 6,1 3,4 5,0 83,0 13,8 235 - 0,0 41 1.015,8
10:41 6,1 3,4 5,0 83,0 13,6 237 - 0,0 36 1.015,9
10:40 6,2 3,5 5,1 83,0 13,3 240 - 0,0 32 1.015,9
10:39 6,2 3,5 5,1 83,0 13,5 242 - 0,0 27 1.015,9
10:38 6,2 3,4 5,1 82,4 13,8 242 - 0,0 25 1.015,9
10:37 6,2 3,4 5,0 82,0 13,8 241 - 0,0 23 1.015,9
10:36 6,2 3,4 5,0 82,0 13,7 240 - 0,0 21 1.015,9
10:35 6,2 3,4 5,0 82,0 13,1 240 - 0,0 21 1.015,8
10:34 6,2 3,4 5,0 82,0 13,4 242 - 0,0 21 1.015,9
10:33 6,2 3,4 5,0 82,0 13,2 246 16,5 0,0 24 1.016,0
10:32 6,2 3,4 5,0 82,0 13,1 251 - 0,0 26 1.015,9
10:31 6,3 3,5 5,1 82,0 13,8 256 - 0,0 26 1.015,9
10:30 6,3 3,5 5,1 82,0 14,5 259 - 0,0 26 1.015,8
10:29 6,3 3,5 5,1 82,0 14,5 258 - 0,0 27 1.015,8
10:28 6,3 3,5 5,1 82,0 14,0 254 17,0 0,0 29 1.015,8
10:27 6,3 3,4 5,1 81,7 14,2 248 - 0,0 31 1.015,8
10:26 6,3 3,3 5,0 81,0 14,4 243 - 0,0 33 1.015,9
10:25 6,3 3,3 5,0 81,0 14,8 240 - 0,0 36 1.015,9
10:24 6,3 3,3 5,0 81,0 15,3 240 - 0,0 39 1.015,9
10:23 6,3 3,5 5,1 82,0 15,1 242 - 0,0 41 1.015,8
10:22 6,2 3,4 5,0 82,0 14,8 245 18,3 0,0 41 1.015,9
10:21 6,2 3,4 5,0 82,0 14,4 249 - 0,0 40 1.016,0
10:20 6,2 3,4 5,0 82,0 14,2 253 - 0,0 40 1.015,9
10:19 6,2 3,4 5,0 82,0 13,8 256 - 0,0 39 1.015,8
10:18 6,2 3,4 5,0 82,0 12,7 258 - 0,0 39 1.015,8
10:17 6,2 3,4 5,0 82,0 12,6 259 - 0,0 40 1.015,8
10:16 6,2 3,4 5,0 82,0 13,6 260 - 0,0 42 1.015,8
10:15 6,2 3,4 5,0 82,0 13,6 260 - 0,0 46 1.015,8
10:14 6,3 3,5 5,1 82,0 13,6 258 - 0,0 49 1.015,8
10:13 6,2 3,4 5,0 82,0 14,0 255 - 0,0 52 1.015,8
10:12 6,2 3,4 5,0 82,0 14,0 252 - 0,0 53 1.015,9
10:11 6,2 3,4 5,0 82,0 13,7 250 - 0,0 49 1.016,0
10:10 6,2 3,4 5,0 82,0 13,5 248 - 0,0 47 1.015,9
10:09 6,2 3,4 5,0 82,0 13,5 248 - 0,0 50 1.016,0
10:08 6,1 3,3 4,9 82,0 13,5 249 - 0,0 47 1.016,0
10:07 6,1 3,3 4,9 82,0 13,4 251 - 0,0 47 1.016,0
10:06 6,1 3,3 4,9 82,0 13,2 253 - 0,0 47 1.016,0
10:05 6,1 3,3 4,9 82,0 13,1 255 - 0,0 48 1.016,1
10:04 6,1 3,3 4,9 82,0 13,3 255 - 0,0 50 1.016,1
10:03 6,0 3,2 4,8 82,0 13,3 256 - 0,0 53 1.016,1
10:02 6,0 3,2 4,8 82,0 12,9 257 - 0,0 54 1.016,2
10:01 6,1 3,3 4,9 82,0 12,2 259 - 0,0 56 1.016,1
10:00 6,1 3,3 4,9 82,0 6,9 259 14,3 0,0 55 1.016,1
 
09:59 6,1 3,3 4,9 82,0 6,6 260 15,2 0,0 54 1.016,0
09:58 6,1 3,3 4,9 82,0 10,0 261 16,1 0,0 54 1.016,0
09:57 6,1 3,3 4,9 82,0 14,0 263 - 0,0 53 1.016,0
09:56 6,1 3,3 4,9 82,0 13,9 264 - 0,0 53 1.016,0
09:55 6,1 3,3 4,9 82,0 13,9 262 - 0,0 51 1.015,9
09:54 6,1 3,3 4,9 82,0 13,6 260 - 0,0 51 1.016,0
09:53 6,1 3,3 4,9 82,0 12,2 260 17,0 0,0 51 1.016,0
09:52 6,1 3,3 4,9 82,0 11,8 260 16,1 0,0 52 1.016,0
09:51 6,1 3,3 4,9 82,0 12,6 258 - 0,0 61 1.016,1
09:50 6,1 3,3 4,9 82,0 13,0 257 - 0,0 63 1.016,0
09:49 6,1 3,3 4,9 82,0 13,1 257 - 0,0 69 1.016,0
09:48 6,1 3,3 4,9 82,0 13,5 258 - 0,0 78 1.016,0
09:47 6,1 3,3 4,9 82,0 13,5 260 - 0,0 87 1.016,0
09:46 6,1 3,2 4,9 81,7 13,4 261 - 0,0 95 1.016,0
09:45 6,2 3,2 4,9 81,0 13,7 262 - 0,0 95 1.016,0
09:44 6,2 3,2 4,9 81,0 14,2 260 - 0,0 90 1.016,0
09:43 6,2 3,2 4,9 81,0 14,8 258 - 0,0 82 1.016,0
09:42 6,2 3,2 4,9 81,0 13,9 256 18,3 0,0 73 1.015,9
09:41 6,2 3,2 4,9 81,0 14,2 253 - 0,0 69 1.015,8
09:40 6,2 3,3 5,0 81,4 14,5 251 18,3 0,0 68 1.015,9
09:39 6,1 3,3 4,9 82,0 14,9 250 - 0,0 63 1.016,0
09:38 6,1 3,3 4,9 82,0 14,7 252 - 0,0 52 1.016,0
09:37 6,1 3,3 4,9 82,0 14,2 254 - 0,0 44 1.016,0
09:36 6,1 3,3 4,9 82,0 14,0 256 - 0,0 40 1.016,0
09:35 6,0 3,2 4,8 82,0 13,9 258 - 0,0 40 1.016,0
09:34 6,0 3,2 4,8 82,0 13,8 260 - 0,0 42 1.016,1
09:33 6,0 3,2 4,8 82,0 13,2 261 - 0,0 44 1.016,1
09:32 6,0 3,2 4,8 82,0 13,1 261 - 0,0 44 1.016,1
09:31 6,0 3,2 4,8 82,0 13,3 261 - 0,0 45 1.016,1
09:30 6,0 3,2 4,8 82,0 13,7 260 - 0,0 48 1.016,1
09:29 5,9 3,1 4,7 82,3 13,8 259 - 0,0 54 1.016,1
09:28 5,9 3,2 4,8 83,0 13,6 257 - 0,0 59 1.016,1
09:27 5,9 3,1 4,8 82,5 13,3 256 - 0,0 58 1.016,2
09:26 5,9 3,1 4,7 82,0 13,0 255 - 0,0 56 1.016,3
09:25 6,0 3,2 4,8 82,0 12,6 255 - 0,0 52 1.016,3
09:24 6,0 3,2 4,8 82,0 12,9 256 - 0,0 47 1.016,2
09:23 6,0 3,2 4,8 82,0 13,5 259 - 0,0 44 1.016,2
09:22 6,0 3,2 4,8 82,0 13,8 261 - 0,0 38 1.016,2
09:21 6,0 3,2 4,8 82,0 13,8 262 - 0,0 33 1.016,2
09:20 6,0 3,2 4,8 82,0 14,0 262 - 0,0 30 1.016,2
09:19 6,0 3,2 4,8 82,0 13,8 261 - 0,0 27 1.016,2
09:18 6,0 3,2 4,8 82,0 14,2 259 - 0,0 26 1.016,2
09:17 6,0 3,2 4,8 82,0 13,1 256 16,5 0,0 29 1.016,2
09:16 6,0 3,2 4,8 82,0 13,2 254 - 0,0 32 1.016,2
09:15 6,0 3,2 4,8 82,0 13,6 253 - 0,0 37 1.016,2
09:14 6,0 3,2 4,8 82,0 14,2 252 17,4 0,0 39 1.016,2
09:13 5,9 3,1 4,7 82,0 13,7 251 - 0,0 42 1.016,2
09:12 6,0 3,2 4,8 82,0 13,6 248 - 0,0 46 1.016,2
09:11 6,0 3,2 4,8 82,0 11,2 244 15,6 0,0 50 1.016,2
09:10 6,0 3,2 4,8 82,0 11,4 241 16,1 0,0 54 1.016,1
09:09 6,0 3,2 4,8 82,0 12,2 238 16,1 0,0 54 1.016,2
09:08 6,0 3,2 4,8 82,0 13,3 237 - 0,0 52 1.016,2
09:07 5,9 3,1 4,7 82,0 13,8 238 - 0,0 48 1.016,1
09:06 5,9 3,1 4,7 82,0 14,5 240 - 0,0 43 1.016,1
09:05 5,9 3,1 4,7 82,0 14,9 240 - 0,0 38 1.016,1
09:04 5,9 3,1 4,7 82,0 14,0 240 - 0,0 33 1.016,1
09:03 5,9 3,1 4,7 82,0 13,8 239 - 0,0 26 1.016,1
09:02 5,9 3,1 4,7 82,0 13,8 238 - 0,0 21 1.016,1
09:01 5,9 3,1 4,7 82,0 13,5 238 - 0,0 19 1.016,2
09:00 6,0 3,2 4,8 82,0 12,8 239 - 0,0 17 1.016,2
 
08:59 6,0 3,1 4,8 81,6 13,0 243 - 0,0 16 1.016,1
08:58 6,1 3,1 4,8 81,0 13,6 247 17,4 0,0 16 1.016,1
08:57 6,1 3,1 4,8 81,0 14,3 251 - 0,0 14 1.016,0
08:56 6,2 3,2 4,9 81,0 15,4 255 - 0,0 14 1.016,0
08:55 6,1 3,1 4,9 81,1 15,6 258 - 0,0 13 1.015,9
08:54 6,0 3,2 4,8 82,0 15,7 261 - 0,0 12 1.016,0
08:53 6,0 3,2 4,8 82,0 15,6 262 - 0,0 14 1.016,0
08:52 6,0 3,2 4,8 82,0 15,3 263 - 0,0 14 1.016,0
08:51 6,0 3,2 4,8 82,0 15,1 264 - 0,0 14 1.016,1
08:50 6,1 3,3 4,9 82,0 15,1 263 19,2 0,0 14 1.016,1
08:49 6,0 3,2 4,8 82,0 15,4 262 - 0,0 13 1.016,0
08:48 6,0 3,2 4,8 82,0 15,3 260 19,2 0,0 12 1.016,1
08:47 6,0 3,2 4,8 82,0 14,2 258 - 0,0 11 1.016,1
08:46 5,9 3,1 4,7 82,0 13,4 257 - 0,0 11 1.016,1
08:45 5,9 3,2 4,8 82,7 14,0 256 - 0,0 11 1.016,0
08:44 5,9 3,2 4,8 83,0 15,0 256 - 0,0 10 1.016,0
08:43 5,9 3,2 4,8 83,0 14,9 258 - 0,0 9 1.016,1
08:42 5,9 3,2 4,8 83,0 14,7 261 - 0,0 8 1.016,0
08:41 5,9 3,2 4,8 83,0 14,7 262 - 0,0 7 1.016,0
08:40 5,9 3,2 4,8 83,0 14,7 263 - 0,0 7 1.016,1
08:39 5,8 3,1 4,7 83,0 14,5 263 - 0,0 7 1.016,1
08:38 5,9 3,2 4,8 83,0 14,1 263 - 0,0 7 1.016,0
08:37 5,9 3,2 4,8 83,0 13,7 262 - 0,0 6 1.016,0
08:36 5,9 3,2 4,8 83,0 13,9 262 - 0,0 5 1.016,0
08:35 5,9 3,2 4,8 83,0 14,1 262 - 0,0 5 1.016,0
08:34 5,9 3,2 4,8 83,0 13,9 263 - 0,0 5 1.016,1
08:33 5,9 3,1 4,7 82,3 13,8 263 - 0,0 5 1.016,1
08:32 6,0 3,2 4,8 82,0 14,5 262 - 0,0 5 1.016,0
08:31 6,0 3,2 4,8 82,0 14,8 261 - 0,0 5 1.015,9
08:30 6,0 3,2 4,8 82,0 15,0 259 - 0,0 5 1.015,8
08:29 6,0 3,2 4,8 82,0 15,7 256 - 0,0 5 1.015,8
08:28 6,0 3,2 4,8 82,0 16,2 253 - 0,0 5 1.015,8
08:27 6,0 3,2 4,8 82,0 15,6 252 - 0,0 0 1.015,8
08:26 6,0 3,2 4,8 82,0 15,6 252 - 0,0 0 1.015,8
08:25 6,0 3,2 4,8 82,0 15,6 253 - 0,0 0 1.015,8
08:24 6,0 3,2 4,8 82,0 15,2 256 18,8 0,0 0 1.015,8
08:23 6,0 3,2 4,9 82,5 14,8 260 - 0,0 0 1.015,9
08:22 6,0 3,2 4,9 82,4 15,1 264 - 0,0 0 1.016,0
08:21 6,0 3,2 4,8 82,0 15,0 266 - 0,0 0 1.016,0
08:20 5,9 3,2 4,8 83,0 14,8 267 - 0,0 0 1.016,0
08:19 5,9 3,2 4,8 82,8 14,0 266 - 0,0 0 1.016,1
08:18 5,9 3,1 4,7 82,0 14,0 264 - 0,0 0 1.016,1
08:17 6,0 3,3 4,9 82,6 14,3 261 - 0,0 0 1.016,2
08:16 5,9 3,2 4,8 83,0 14,7 260 - 0,0 0 1.016,1
08:15 5,9 3,2 4,8 83,0 15,1 259 - 0,0 0 1.016,1
08:14 5,9 3,2 4,8 83,0 15,2 259 - 0,0 0 1.016,1
08:13 5,9 3,2 4,8 83,0 14,6 259 - 0,0 0 1.016,1
08:12 5,8 3,1 4,7 83,0 14,2 259 - 0,0 0 1.016,1
08:11 5,8 3,1 4,7 83,0 14,2 259 - 0,0 0 1.016,1
08:10 5,8 3,1 4,7 83,0 14,0 258 - 0,0 0 1.016,1
08:09 5,9 3,2 4,8 83,0 14,2 255 - 0,0 0 1.016,2
08:08 5,9 3,2 4,8 83,0 13,7 253 - 0,0 0 1.016,1
08:07 5,8 3,1 4,7 83,0 14,0 253 - 0,0 0 1.016,1
08:06 5,9 3,2 4,8 83,0 14,5 252 - 0,0 0 1.016,0
08:05 5,9 3,2 4,8 83,0 14,6 252 - 0,0 0 1.015,9
08:04 5,9 3,2 4,8 83,0 15,4 252 - 0,0 0 1.016,0
08:03 5,9 3,2 4,8 83,0 14,8 253 - 0,0 0 1.016,1
08:02 5,9 3,2 4,8 83,0 13,9 254 - 0,0 0 1.016,0
08:01 5,9 3,2 4,8 83,0 13,9 254 17,4 0,0 0 1.016,0
08:00 5,9 3,2 4,8 83,0 14,5 254 - 0,0 0 1.016,0
 
07:59 5,9 3,2 4,8 83,0 14,6 255 - 0,0 0 1.016,0
07:58 5,9 3,2 4,8 83,0 14,8 257 - 0,0 0 1.016,0
07:57 5,8 3,0 4,6 82,0 15,2 260 - 0,0 0 1.015,9
07:56 5,9 3,1 4,7 82,0 15,1 261 - 0,0 0 1.015,9
07:55 5,9 3,1 4,7 82,0 15,0 262 - 0,0 0 1.015,9
07:54 5,9 3,1 4,8 82,5 15,1 263 - 0,0 0 1.015,9
07:53 5,9 3,1 4,8 82,4 15,1 263 - 0,0 0 1.016,0
07:52 5,9 3,1 4,7 82,0 14,8 263 - 0,0 0 1.016,0
07:51 6,0 3,2 4,8 82,0 14,9 263 - 0,0 0 1.015,9
07:50 6,0 3,2 4,8 82,0 15,5 262 - 0,0 0 1.015,8
07:49 6,0 3,2 4,8 82,0 15,9 260 - 0,0 0 1.015,8
07:48 6,0 3,2 4,8 82,0 16,1 259 - 0,0 0 1.015,8
07:47 6,0 3,2 4,8 82,0 15,3 258 19,2 0,0 0 1.015,8
07:46 6,0 3,2 4,8 82,0 14,6 257 17,9 0,0 0 1.015,9
07:45 6,0 3,2 4,8 82,0 14,7 256 - 0,0 0 1.015,9
07:44 6,0 3,2 4,8 82,0 15,6 257 - 0,0 0 1.015,9
07:43 6,0 3,2 4,8 82,0 15,1 259 - 0,0 0 1.015,8
07:42 6,0 3,2 4,8 82,0 15,0 261 - 0,0 0 1.015,8
07:41 6,0 3,2 4,8 82,0 15,1 264 - 0,0 0 1.015,8
07:40 6,0 3,0 4,8 81,2 15,6 266 - 0,0 0 1.015,9
07:39 6,0 3,0 4,7 81,0 15,6 268 - 0,0 0 1.015,8
07:38 6,1 3,1 4,8 81,0 15,7 269 18,8 0,0 0 1.015,8
07:37 6,1 3,1 4,8 81,0 15,7 269 - 0,0 0 1.015,8
07:36 6,1 3,1 4,8 81,0 15,9 267 - 0,0 0 1.015,8
07:35 6,1 3,1 4,8 81,0 16,1 264 - 0,0 0 1.015,8
07:34 6,1 3,1 4,8 81,0 16,2 262 - 0,0 0 1.015,8
07:33 6,2 3,2 4,9 80,9 16,3 261 - 0,0 0 1.015,8
07:32 6,2 3,1 4,9 80,3 16,5 261 - 0,0 0 1.015,8
07:31 6,2 3,2 4,9 81,0 16,5 260 - 0,0 0 1.015,8
07:30 6,1 3,1 4,8 81,0 16,9 259 - 0,0 0 1.015,8
07:29 6,0 3,0 4,7 81,0 14,3 259 19,2 0,0 0 1.015,8
07:28 6,1 3,1 4,8 81,0 14,0 259 - 0,0 0 1.015,9
07:27 6,1 3,1 4,8 81,0 14,1 259 18,3 0,0 0 1.015,9
07:26 6,1 3,1 4,8 81,0 15,8 260 - 0,0 0 1.015,9
07:25 6,1 3,1 4,8 81,0 16,1 262 - 0,0 0 1.015,8
07:24 6,1 3,1 4,8 81,0 16,3 265 - 0,0 0 1.015,8
07:23 6,1 3,1 4,8 81,0 16,0 265 - 0,0 0 1.015,9
07:22 6,1 3,1 4,8 81,0 16,0 264 - 0,0 0 1.015,8
07:21 6,2 3,2 4,9 81,0 16,2 263 - 0,0 0 1.015,8
07:20 6,2 3,2 4,9 81,0 15,4 261 19,2 0,0 0 1.015,8
07:19 6,1 3,1 4,8 81,0 14,8 259 18,3 0,0 0 1.015,8
07:18 6,1 3,1 4,8 81,0 14,7 258 - 0,0 0 1.015,8
07:17 6,1 3,1 4,8 81,0 15,4 258 - 0,0 0 1.015,8
07:16 6,1 3,1 4,8 81,0 15,8 260 - 0,0 0 1.015,8
07:15 6,2 3,2 4,9 80,9 15,5 263 - 0,0 0 1.015,9
07:14 6,2 3,0 4,9 80,0 15,2 267 - 0,0 0 1.015,9
07:13 6,2 3,0 4,9 80,0 15,3 269 - 0,0 0 1.015,9
07:12 6,2 3,0 4,9 80,0 16,1 271 - 0,0 0 1.015,9
07:11 6,2 3,0 4,9 80,0 16,6 272 - 0,0 0 1.015,8
07:10 6,2 3,0 4,9 80,0 16,6 271 19,7 0,0 0 1.015,7
07:09 6,3 3,1 5,0 80,0 16,4 270 - 0,0 0 1.015,7
07:08 6,3 3,1 5,0 80,0 16,4 267 - 0,0 0 1.015,7
07:07 6,3 3,0 4,9 79,4 16,6 264 - 0,0 0 1.015,7
07:06 6,3 2,9 4,9 79,0 16,5 262 - 0,0 0 1.015,6
07:05 6,3 2,9 4,9 79,1 16,9 260 - 0,0 0 1.015,5
07:04 6,3 3,1 5,0 80,0 17,0 260 20,1 0,0 0 1.015,6
07:03 6,3 3,1 5,0 80,0 16,7 260 - 0,0 0 1.015,6
07:02 6,2 3,1 4,9 80,4 16,4 262 - 0,0 0 1.015,5
07:01 6,2 3,2 4,9 81,0 16,0 263 - 0,0 0 1.015,6
07:00 6,2 3,2 4,9 81,0 15,9 264 - 0,0 0 1.015,7
 
06:59 6,2 3,2 4,9 81,0 16,0 263 19,7 0,0 0 1.015,7
06:58 6,2 3,2 4,9 81,0 15,9 260 - 0,0 0 1.015,6
06:57 6,1 3,1 4,8 81,0 14,2 258 - 0,0 0 1.015,6
06:56 6,2 3,2 4,9 81,0 13,6 257 17,0 0,0 0 1.015,7
06:55 6,2 3,2 4,9 81,0 13,8 256 - 0,0 0 1.015,7
06:54 6,2 3,2 4,9 81,0 14,7 258 - 0,0 0 1.015,7
06:53 6,3 3,1 5,0 80,2 15,2 261 - 0,0 0 1.015,7
06:52 6,3 3,3 5,0 81,0 15,6 265 18,8 0,0 0 1.015,7
06:51 6,2 3,2 4,9 81,0 15,7 267 19,7 0,0 0 1.015,7
06:50 6,2 3,2 4,9 81,0 15,3 269 - 0,0 0 1.015,8
06:49 6,2 3,2 4,9 81,0 15,4 269 - 0,0 0 1.015,8
06:48 6,2 3,2 4,9 81,0 15,7 268 - 0,0 0 1.015,7
06:47 6,2 3,2 4,9 81,0 16,2 267 - 0,0 0 1.015,7
06:46 6,2 3,2 4,9 81,0 16,5 266 - 0,0 0 1.015,7
06:45 6,2 3,2 4,9 81,0 16,6 266 19,7 0,0 0 1.015,7
06:44 6,1 3,1 4,8 81,0 16,1 265 - 0,0 0 1.015,8
06:43 6,2 3,2 4,9 81,0 16,0 264 - 0,0 0 1.015,7
06:42 6,1 3,2 4,9 81,7 16,2 263 - 0,0 0 1.015,7
06:41 6,1 3,3 4,9 82,0 16,1 263 - 0,0 0 1.015,8
06:40 6,1 3,3 4,9 82,0 15,6 262 - 0,0 0 1.015,8
06:39 6,1 3,3 4,9 82,0 15,5 261 - 0,0 0 1.015,8
06:38 6,1 3,3 4,9 82,0 15,5 259 - 0,0 0 1.015,8
06:37 6,1 3,2 4,9 81,4 15,8 257 - 0,0 0 1.015,8
06:36 6,2 3,2 4,9 81,0 15,0 256 - 0,0 0 1.015,8
06:35 6,2 3,2 4,9 81,0 15,2 257 - 0,0 0 1.015,7
06:34 6,2 3,2 4,9 81,0 15,8 258 - 0,0 0 1.015,7
06:33 6,3 3,3 5,0 81,0 16,1 258 - 0,0 0 1.015,7
06:32 6,2 3,2 4,9 81,0 16,3 260 - 0,0 0 1.015,7
06:31 6,2 3,2 4,9 81,0 15,5 262 - 0,0 0 1.015,7
06:30 6,1 3,1 4,8 81,0 14,9 264 17,9 0,0 0 1.015,8
06:29 6,1 3,1 4,8 81,0 14,3 265 - 0,0 0 1.015,8
06:28 6,2 3,2 4,9 81,0 14,9 266 - 0,0 0 1.015,8
06:27 6,2 3,2 4,9 81,0 15,7 266 - 0,0 0 1.015,7
06:26 6,2 3,2 4,9 81,0 16,3 268 - 0,0 0 1.015,7
06:25 6,2 3,1 4,9 80,4 16,0 268 19,2 0,0 0 1.015,7
06:24 6,2 3,0 4,9 80,0 15,8 268 - 0,0 0 1.015,7
06:23 6,2 3,2 4,9 80,9 15,9 269 - 0,0 0 1.015,7
06:22 6,2 3,2 4,9 81,0 15,9 269 - 0,0 0 1.015,7
06:21 6,2 3,2 4,9 81,0 15,8 270 - 0,0 0 1.015,7
06:20 6,2 3,2 4,9 81,0 16,1 270 - 0,0 0 1.015,7
06:19 6,2 3,2 4,9 81,0 16,0 269 - 0,0 0 1.015,7
06:18 6,2 3,2 4,9 81,0 15,7 269 - 0,0 0 1.015,7
06:17 6,2 3,2 4,9 81,0 15,9 268 - 0,0 0 1.015,7
06:16 6,2 3,2 4,9 81,0 16,1 267 - 0,0 0 1.015,7
06:15 6,2 3,2 4,9 81,0 15,7 267 - 0,0 0 1.015,8
06:14 6,2 3,2 4,9 81,0 15,1 267 - 0,0 0 1.015,8
06:13 6,2 3,2 4,9 81,0 14,6 267 - 0,0 0 1.015,7
06:12 6,2 3,0 4,9 80,1 14,9 267 - 0,0 0 1.015,7
06:11 6,2 3,2 4,9 81,0 15,5 266 - 0,0 0 1.015,7
06:10 6,2 3,2 4,9 81,0 15,5 264 - 0,0 0 1.015,7
06:09 6,2 3,2 4,9 81,0 14,9 261 18,3 0,0 0 1.015,8
06:08 6,2 3,2 4,9 81,0 13,3 260 16,5 0,0 0 1.015,8
06:07 6,2 3,2 4,9 81,0 12,8 260 - 0,0 0 1.015,8
06:06 6,2 3,2 4,9 81,0 13,4 260 16,5 0,0 0 1.015,8
06:05 6,2 3,2 4,9 81,0 14,9 259 - 0,0 0 1.015,7
06:04 6,2 3,2 4,9 81,0 14,8 256 - 0,0 0 1.015,7
06:03 6,2 3,2 4,9 81,0 13,8 253 - 0,0 0 1.015,8
06:02 6,2 3,2 4,9 81,0 13,8 248 - 0,0 0 1.015,8
06:01 6,1 3,1 4,8 81,0 13,7 245 - 0,0 0 1.015,8
06:00 6,2 3,2 4,9 81,0 13,5 245 - 0,0 0 1.015,8
 
05:59 6,2 3,2 4,9 81,0 12,8 249 - 0,0 0 1.015,8
05:58 6,1 3,1 4,8 81,0 13,2 254 - 0,0 0 1.015,8
05:57 6,1 3,1 4,8 81,0 13,8 260 - 0,0 0 1.015,9
05:56 6,1 3,1 4,8 81,0 13,8 263 - 0,0 0 1.015,9
05:55 6,0 3,1 4,8 81,8 14,0 264 - 0,0 0 1.015,8
05:54 6,0 3,0 4,8 81,1 14,3 262 - 0,0 0 1.015,8
05:53 6,1 3,1 4,8 81,0 14,0 258 - 0,0 0 1.015,8
05:52 6,2 3,2 4,9 81,0 14,1 255 - 0,0 0 1.015,8
05:51 6,2 3,2 4,9 81,0 14,6 254 - 0,0 0 1.015,8
05:50 6,2 3,2 4,9 81,0 15,0 254 - 0,0 0 1.015,8
05:49 6,2 3,2 4,9 81,0 14,9 254 - 0,0 0 1.015,8
05:48 6,2 3,2 4,9 81,0 15,1 256 - 0,0 0 1.015,8
05:47 6,2 3,2 4,9 81,0 15,5 259 - 0,0 0 1.015,8
05:46 6,1 3,1 4,8 81,0 15,5 263 - 0,0 0 1.015,8
05:45 6,1 3,1 4,8 81,0 15,3 267 - 0,0 0 1.015,9
05:44 6,1 3,1 4,8 81,0 15,3 270 - 0,0 0 1.015,9
05:43 6,2 3,2 4,9 81,0 15,3 272 - 0,0 0 1.015,9
05:42 6,2 3,1 4,9 80,8 15,4 272 - 0,0 0 1.015,8
05:41 6,2 3,0 4,9 80,0 15,5 271 - 0,0 0 1.015,8
05:40 6,2 3,0 4,9 80,0 15,6 268 - 0,0 0 1.015,9
05:39 6,2 3,0 4,9 80,0 16,3 266 - 0,0 0 1.015,8
05:38 6,2 3,0 4,9 80,0 16,5 263 - 0,0 0 1.015,7
05:37 6,2 3,0 4,9 80,0 16,3 261 - 0,0 0 1.015,7
05:36 6,2 3,0 4,9 80,0 16,0 260 - 0,0 0 1.015,8
05:35 6,3 3,1 5,0 80,0 15,8 261 - 0,0 0 1.015,8
05:34 6,3 3,1 5,0 80,0 15,9 262 - 0,0 0 1.015,8
05:33 6,3 3,1 5,0 80,0 16,1 262 - 0,0 0 1.015,8
05:32 6,3 3,1 5,0 80,0 16,3 260 - 0,0 0 1.015,8
05:31 6,3 3,1 5,0 80,0 16,4 258 - 0,0 0 1.015,7
05:30 6,3 3,1 5,0 80,0 14,6 257 18,8 0,0 0 1.015,7
05:29 6,3 3,1 5,0 80,0 14,4 256 17,9 0,0 0 1.015,8
05:28 6,2 3,0 4,9 80,0 15,1 258 18,3 0,0 0 1.015,9
05:27 6,2 3,0 4,9 80,0 16,5 261 - 0,0 0 1.015,9
05:26 6,3 3,1 5,0 80,0 16,6 266 - 0,0 0 1.015,8
05:25 6,3 3,0 4,9 79,2 17,2 272 - 0,0 0 1.015,8
05:24 6,3 3,1 5,0 80,0 17,3 275 - 0,0 0 1.015,8
05:23 6,3 3,1 4,9 79,8 16,6 274 - 0,0 0 1.015,8
05:22 6,3 2,9 4,9 79,0 15,9 272 - 0,0 0 1.015,8
05:21 6,4 3,0 5,0 79,0 14,5 269 18,3 0,0 0 1.015,8
05:20 6,5 3,0 5,0 78,3 16,8 266 20,1 0,0 0 1.015,7
05:19 6,5 2,9 5,0 78,0 18,0 263 21,9 0,0 0 1.015,5
05:18 6,4 3,0 5,0 79,0 19,4 262 - 0,0 0 1.015,5
05:17 6,4 3,0 5,0 79,0 18,9 263 22,4 0,0 0 1.015,5
05:16 6,4 3,0 5,0 79,0 18,2 264 - 0,0 0 1.015,6
05:15 6,4 3,0 5,0 79,0 17,5 264 22,4 0,0 0 1.015,6
05:14 6,4 3,0 5,0 79,0 17,4 265 - 0,0 0 1.015,6
05:13 6,4 3,0 5,0 79,0 17,5 264 - 0,0 0 1.015,6
05:12 6,4 3,0 5,0 79,0 17,7 264 - 0,0 0 1.015,6
05:11 6,4 3,0 5,0 79,0 17,7 263 - 0,0 0 1.015,6
05:10 6,4 3,0 4,9 78,6 17,1 263 - 0,0 0 1.015,6
05:09 6,5 2,9 5,0 78,0 17,0 263 - 0,0 0 1.015,6
05:08 6,6 3,0 5,1 78,0 17,9 263 - 0,0 0 1.015,5
05:07 6,5 2,9 5,0 78,0 18,5 263 21,9 0,0 0 1.015,6
05:06 6,4 2,9 4,9 78,4 18,1 263 - 0,0 0 1.015,7
05:05 6,6 3,2 5,2 79,0 17,2 262 21,9 0,0 0 1.015,6
05:04 6,4 3,0 5,0 79,0 17,0 261 - 0,0 0 1.015,8
05:03 6,4 3,0 5,0 79,0 16,1 261 19,7 0,0 0 1.015,8
05:02 6,5 3,0 5,0 78,3 16,4 261 - 0,0 0 1.015,7
05:01 6,5 2,9 5,0 78,0 17,2 260 20,6 0,0 0 1.015,6
05:00 6,5 3,0 5,0 78,2 18,6 259 - 0,0 0 1.015,6
 
04:59 6,4 3,0 5,0 79,0 18,3 259 - 0,0 0 1.015,7
04:58 6,3 3,0 4,9 79,5 16,7 258 21,0 0,0 0 1.015,9
04:57 6,3 3,1 5,0 80,0 15,7 257 19,7 0,0 0 1.016,0
04:56 6,3 3,1 5,0 80,0 15,2 254 20,6 0,0 0 1.015,9
04:55 6,2 3,0 4,9 80,0 15,4 251 19,7 0,0 0 1.015,9
04:54 6,2 3,1 4,9 80,3 15,3 252 - 0,0 0 1.015,9
04:53 6,2 3,1 4,9 80,6 14,9 254 - 0,0 0 1.015,9
04:52 6,2 3,0 4,9 80,0 14,3 257 - 0,0 0 1.015,9
04:51 6,3 3,1 5,0 80,0 14,0 260 17,4 0,0 0 1.015,9
04:50 6,3 3,0 4,9 79,2 15,2 261 - 0,0 0 1.015,9
04:49 6,4 3,0 5,0 79,0 15,2 261 - 0,0 0 1.015,8
04:48 6,4 3,0 5,0 79,0 14,9 259 - 0,0 0 1.015,8
04:47 6,3 2,9 4,9 79,0 14,1 257 - 0,0 0 1.015,7
04:46 6,4 3,0 5,0 79,0 13,8 256 - 0,0 0 1.015,7
04:45 6,4 3,0 5,0 79,0 14,2 255 19,2 0,0 0 1.015,7
04:44 6,3 2,9 4,9 79,0 15,8 256 - 0,0 0 1.015,7
04:43 6,3 3,1 5,0 80,0 15,4 257 - 0,0 0 1.015,8
04:42 6,3 3,1 5,0 80,0 14,6 256 19,2 0,0 0 1.015,9
04:41 6,3 3,1 5,0 80,0 14,2 253 17,4 0,0 0 1.015,8
04:40 6,3 3,1 5,0 80,0 13,5 247 - 0,0 0 1.015,9
04:39 6,3 3,1 5,0 80,0 13,5 242 17,9 0,0 0 1.015,8
04:38 6,3 3,1 5,0 80,0 14,0 237 17,9 0,0 0 1.015,9
04:37 6,3 3,0 4,9 79,2 14,3 234 - 0,0 0 1.015,9
04:36 6,3 3,1 5,0 80,0 14,6 233 - 0,0 0 1.015,9
04:35 6,3 3,0 4,9 79,6 14,2 234 17,4 0,0 0 1.015,9
04:34 6,3 3,0 4,9 79,6 13,6 238 - 0,0 0 1.015,8
04:33 6,3 3,1 5,0 80,0 14,1 244 - 0,0 0 1.015,8
04:32 6,3 2,9 4,9 79,1 14,5 250 - 0,0 0 1.015,9
04:31 6,3 3,1 4,9 79,8 14,0 255 - 0,0 0 1.015,8
04:30 6,3 3,0 4,9 79,3 14,6 258 - 0,0 0 1.015,9
04:29 6,3 3,1 5,0 80,0 14,4 257 - 0,0 0 1.015,8
04:28 6,3 3,1 5,0 80,0 14,8 253 - 0,0 0 1.015,8
04:27 6,2 3,0 4,9 80,0 14,5 248 - 0,0 0 1.015,9
04:26 6,3 3,1 5,0 80,0 13,3 244 - 0,0 0 1.015,9
04:25 6,3 2,9 4,9 79,0 13,5 243 - 0,0 0 1.015,8
04:24 6,3 2,9 4,9 79,0 13,7 244 - 0,0 0 1.015,9
04:23 6,3 2,9 4,9 79,0 14,1 247 - 0,0 0 1.015,9
04:22 6,3 2,9 4,9 79,0 13,6 251 - 0,0 0 1.015,8
04:21 6,4 3,0 5,0 79,0 13,9 255 17,0 0,0 0 1.015,8
04:20 6,3 2,9 4,9 79,0 14,7 257 18,3 0,0 0 1.015,8
04:19 6,3 3,0 4,9 79,2 15,4 256 - 0,0 0 1.015,8
04:18 6,3 3,1 5,0 80,0 15,0 255 18,3 0,0 0 1.015,8
04:17 6,3 3,0 4,9 79,4 13,5 254 - 0,0 0 1.015,9
04:16 6,3 3,0 4,9 79,7 13,0 254 - 0,0 0 1.015,9
04:15 6,2 3,0 4,9 80,0 13,0 255 16,5 0,0 0 1.015,9
04:14 6,2 3,0 4,9 80,0 14,4 258 - 0,0 0 1.015,9
04:13 6,2 3,0 4,9 80,0 14,4 260 - 0,0 0 1.015,9
04:12 6,2 3,0 4,9 80,0 14,4 262 - 0,0 0 1.015,9
04:11 6,2 3,0 4,9 80,0 14,3 261 - 0,0 0 1.015,9
04:10 6,2 3,0 4,9 80,0 13,9 260 - 0,0 0 1.015,9
04:09 6,3 3,1 5,0 80,0 14,0 259 - 0,0 0 1.015,9
04:08 6,3 2,9 4,9 79,1 14,2 258 - 0,0 0 1.015,9
04:07 6,3 2,9 4,9 79,0 14,4 256 - 0,0 0 1.015,9
04:06 6,3 2,9 4,9 79,0 14,2 254 - 0,0 0 1.016,0
04:05 6,3 2,9 4,9 79,0 12,6 253 15,6 0,0 0 1.015,9
04:04 6,3 2,9 4,9 79,0 12,7 253 17,0 0,0 0 1.015,9
04:03 6,3 2,9 4,9 79,0 14,0 253 - 0,0 0 1.015,9
04:02 6,3 2,9 4,9 79,0 14,5 253 - 0,0 0 1.015,9
04:01 6,3 3,0 4,9 79,3 15,1 254 - 0,0 0 1.015,9
04:00 6,3 3,0 4,9 79,6 14,9 256 18,3 0,0 0 1.015,9
 
03:59 6,3 2,9 4,9 79,0 15,0 258 - 0,0 0 1.015,9
03:58 6,3 2,9 4,9 79,0 14,8 259 - 0,0 0 1.015,9
03:57 6,3 2,9 4,9 79,0 14,8 259 - 0,0 0 1.015,9
03:56 6,3 3,1 5,0 80,0 14,6 259 18,8 0,0 0 1.015,9
03:55 6,3 3,1 5,0 80,0 14,3 259 - 0,0 0 1.016,1
03:54 6,2 3,0 4,9 80,0 13,9 259 - 0,0 0 1.016,1
03:53 6,2 3,0 4,9 80,0 13,6 257 - 0,0 0 1.016,1
03:52 6,2 3,0 4,9 80,0 13,4 254 - 0,0 0 1.016,1
03:51 6,2 3,0 4,9 80,0 13,2 251 - 0,0 0 1.016,1
03:50 6,2 3,0 4,9 80,0 13,1 250 16,1 0,0 0 1.016,0
03:49 6,2 3,0 4,9 80,0 12,7 248 - 0,0 0 1.016,0
03:48 6,2 3,1 4,9 80,5 12,8 245 16,1 0,0 0 1.016,0
03:47 6,2 3,2 4,9 81,0 13,5 243 - 0,0 0 1.016,0
03:46 6,1 3,1 4,8 81,0 13,0 243 16,1 0,0 0 1.016,0
03:45 6,1 3,1 4,8 81,0 12,5 243 15,6 0,0 0 1.016,0
03:44 6,2 3,0 4,9 80,0 12,5 242 - 0,0 0 1.016,0
03:43 6,2 3,0 4,9 80,0 13,4 243 - 0,0 0 1.016,0
03:42 6,2 3,0 4,9 80,0 13,6 246 - 0,0 0 1.016,0
03:41 6,2 3,0 4,9 80,0 13,5 248 - 0,0 0 1.016,1
03:40 6,2 3,0 4,9 80,0 13,2 249 - 0,0 0 1.016,1
03:39 6,3 3,0 4,9 79,2 13,7 247 - 0,0 0 1.016,0
03:38 6,3 3,1 5,0 80,0 13,6 245 18,8 0,0 0 1.016,0
03:37 6,2 3,0 4,9 80,0 13,2 244 17,4 0,0 0 1.016,1
03:36 6,2 3,0 4,9 80,0 13,1 245 - 0,0 0 1.016,1
03:35 6,2 3,0 4,9 80,0 12,9 246 18,8 0,0 0 1.016,2
03:34 6,2 3,0 4,9 80,0 13,5 249 - 0,0 0 1.016,3
03:33 6,2 3,0 4,9 80,0 13,1 253 - 0,0 0 1.016,3
03:32 6,2 3,0 4,9 80,0 12,7 257 - 0,0 0 1.016,3
03:31 6,3 3,1 5,0 80,0 12,9 260 - 0,0 0 1.016,3
03:30 6,3 3,0 4,9 79,5 13,0 261 - 0,0 0 1.016,3
03:29 6,3 2,9 4,9 79,0 13,5 263 - 0,0 0 1.016,3
03:28 6,3 2,9 4,9 79,0 13,7 264 - 0,0 0 1.016,4
03:27 6,3 3,1 5,0 80,0 14,0 265 - 0,0 0 1.016,4
03:26 6,3 3,1 5,0 80,0 14,1 263 - 0,0 0 1.016,4
03:25 6,3 3,1 5,0 80,0 13,8 260 - 0,0 0 1.016,4
03:24 6,3 3,0 4,9 79,5 13,4 256 - 0,0 0 1.016,5
03:23 6,3 2,9 4,9 79,0 13,0 253 - 0,0 0 1.016,6
03:22 6,3 2,9 4,9 79,0 13,2 252 - 0,0 0 1.016,5
03:21 6,3 2,9 4,9 79,0 13,1 252 - 0,0 0 1.016,4
03:20 6,3 2,9 4,9 79,0 13,5 254 - 0,0 0 1.016,5
03:19 6,3 2,9 4,9 79,0 13,9 257 - 0,0 0 1.016,5
03:18 6,3 2,9 4,9 79,0 13,6 260 - 0,0 0 1.016,5
03:17 6,4 2,9 4,9 78,3 13,4 263 - 0,0 0 1.016,5
03:16 6,4 2,8 4,9 78,0 13,7 265 - 0,0 0 1.016,5
03:15 6,4 2,8 4,9 78,0 14,0 266 - 0,0 0 1.016,4
03:14 6,4 2,8 4,9 78,0 14,7 264 - 0,0 0 1.016,4
03:13 6,4 2,8 4,9 78,0 15,0 259 - 0,0 0 1.016,5
03:12 6,4 2,8 4,9 78,0 12,8 254 17,4 0,0 0 1.016,5
03:11 6,4 2,8 4,9 78,0 12,3 250 16,1 0,0 0 1.016,5
03:10 6,5 2,9 5,0 78,0 13,9 247 - 0,0 0 1.016,4
03:09 6,5 2,9 5,0 78,0 14,4 245 17,4 0,0 0 1.016,4
03:08 6,4 2,8 4,9 78,0 15,2 245 - 0,0 0 1.016,5
03:07 6,5 2,9 5,0 78,0 14,9 249 - 0,0 0 1.016,5
03:06 6,3 2,7 4,8 78,0 14,4 252 - 0,0 0 1.016,5
03:05 6,3 2,7 4,8 78,0 13,7 254 - 0,0 0 1.016,6
03:04 6,3 2,9 4,9 78,9 13,0 256 - 0,0 0 1.016,6
03:03 6,3 2,7 4,8 78,0 12,9 259 - 0,0 0 1.016,7
03:02 6,4 2,8 4,9 78,0 13,2 262 - 0,0 0 1.016,7
03:01 6,4 2,8 4,9 78,0 13,6 263 - 0,0 0 1.016,7
03:00 6,5 2,9 5,0 78,0 14,0 263 - 0,0 0 1.016,6
 
02:59 6,5 2,9 5,0 78,0 13,8 263 - 0,0 0 1.016,7
02:58 6,5 2,9 5,0 78,0 14,0 262 17,4 0,0 0 1.016,7
02:57 6,4 2,8 4,9 78,0 14,3 261 - 0,0 0 1.016,7
02:56 6,5 2,9 5,0 78,0 14,3 259 17,9 0,0 0 1.016,7
02:55 6,4 2,8 4,9 78,0 14,1 259 - 0,0 0 1.016,7
02:54 6,3 2,9 4,9 78,7 13,7 259 17,9 0,0 0 1.016,7
02:53 6,3 2,9 4,9 79,0 13,9 258 - 0,0 0 1.016,8
02:52 6,3 2,9 4,9 79,0 14,3 258 - 0,0 0 1.016,8
02:51 6,3 2,9 4,9 79,0 14,4 257 - 0,0 0 1.016,8
02:50 6,2 2,8 4,8 79,0 14,2 255 - 0,0 0 1.016,8
02:49 6,3 2,9 4,9 79,0 13,9 252 - 0,0 0 1.016,9
02:48 6,3 2,9 4,9 79,0 13,8 250 - 0,0 0 1.016,9
02:47 6,3 2,9 4,9 79,0 13,7 249 - 0,0 0 1.016,9
02:46 6,3 2,9 4,9 79,0 13,8 250 - 0,0 0 1.016,9
02:45 6,3 2,9 4,9 79,0 13,9 251 - 0,0 0 1.016,9
02:44 6,3 2,9 4,9 79,0 13,9 253 - 0,0 0 1.016,9
02:43 6,2 2,9 4,8 79,6 13,5 256 - 0,0 0 1.016,9
02:42 6,2 3,0 4,9 80,0 13,1 257 - 0,0 0 1.016,9
02:41 6,2 3,0 4,9 80,0 12,7 255 - 0,0 0 1.016,9
02:40 6,2 3,0 4,9 80,0 12,6 253 - 0,0 0 1.017,0
02:39 6,1 2,9 4,8 80,0 12,7 252 - 0,0 0 1.016,9
02:38 6,1 2,9 4,8 80,0 13,1 250 - 0,0 0 1.017,0
02:37 6,1 2,9 4,8 80,0 12,8 249 - 0,0 0 1.017,0
02:36 6,2 3,0 4,9 80,0 12,7 249 - 0,0 0 1.016,9
02:35 6,2 2,9 4,8 79,2 13,0 250 - 0,0 0 1.016,9
02:34 6,2 3,0 4,9 80,0 13,6 252 - 0,0 0 1.016,8
02:33 6,2 3,0 4,9 80,0 13,9 253 - 0,0 0 1.016,8
02:32 6,2 3,0 4,9 80,0 13,9 254 - 0,0 0 1.016,7
02:31 6,1 2,9 4,8 80,0 13,7 255 - 0,0 0 1.016,8
02:30 6,1 2,9 4,8 80,0 13,3 256 - 0,0 0 1.016,9
02:29 6,1 2,9 4,8 80,0 13,0 257 16,1 0,0 0 1.016,9
02:28 6,1 2,9 4,8 80,0 12,8 258 - 0,0 0 1.017,0
02:27 6,1 2,9 4,8 80,0 13,0 258 - 0,0 0 1.017,0
02:26 6,1 2,9 4,8 80,0 13,1 258 - 0,0 0 1.016,9
02:25 6,2 3,0 4,9 80,0 12,9 257 - 0,0 0 1.016,9
02:24 6,2 3,0 4,9 80,0 12,6 256 - 0,0 0 1.016,9
02:23 6,2 3,0 4,9 80,0 12,4 256 - 0,0 0 1.016,9
02:22 6,2 3,0 4,8 79,8 12,6 257 - 0,0 0 1.016,9
02:21 6,2 2,8 4,8 79,0 12,6 257 - 0,0 0 1.016,9
02:20 6,2 2,8 4,8 79,0 13,2 257 - 0,0 0 1.016,9
02:19 6,2 2,8 4,8 79,0 13,4 257 - 0,0 0 1.016,9
02:18 6,2 3,0 4,8 79,8 13,3 257 - 0,0 0 1.016,9
02:17 6,2 3,0 4,9 80,0 12,8 256 - 0,0 0 1.016,9
02:16 6,2 3,0 4,8 79,8 12,6 254 - 0,0 0 1.016,9
02:15 6,3 2,9 4,9 79,0 12,8 253 - 0,0 0 1.016,8
02:14 6,3 2,9 4,9 79,0 13,1 253 - 0,0 0 1.016,8
02:13 6,2 2,8 4,8 79,0 13,0 252 - 0,0 0 1.016,9
02:12 6,2 2,8 4,8 79,0 12,7 251 - 0,0 0 1.016,9
02:11 6,2 2,8 4,8 79,0 12,4 249 - 0,0 0 1.016,9
02:10 6,2 2,8 4,8 79,0 11,7 247 14,8 0,0 0 1.016,9
02:09 6,2 2,8 4,8 79,0 11,3 247 - 0,0 0 1.017,0
02:08 6,2 2,8 4,8 79,0 11,4 248 - 0,0 0 1.017,0
02:07 6,2 2,8 4,8 79,0 12,0 251 - 0,0 0 1.017,0
02:06 6,2 2,8 4,8 79,0 11,9 255 - 0,0 0 1.017,0
02:05 6,2 2,8 4,8 79,0 11,8 258 - 0,0 0 1.017,0
02:04 6,2 2,8 4,8 79,0 11,8 259 - 0,0 0 1.017,0
02:03 6,2 2,8 4,8 79,0 12,0 258 - 0,0 0 1.017,1
02:02 6,2 2,8 4,8 79,0 11,8 256 - 0,0 0 1.017,1
02:01 6,2 2,8 4,8 79,0 11,3 255 - 0,0 0 1.017,2
02:00 6,3 2,9 4,9 79,0 11,3 253 - 0,0 0 1.017,2
 
01:59 6,3 2,9 4,9 78,9 11,2 252 - 0,0 0 1.017,1
01:58 6,3 2,7 4,8 78,0 11,7 252 - 0,0 0 1.017,1
01:57 6,3 2,7 4,8 78,0 11,7 253 14,8 0,0 0 1.017,1
01:56 6,3 2,9 4,9 78,6 11,8 255 - 0,0 0 1.017,1
01:55 6,3 2,9 4,9 79,0 11,9 257 - 0,0 0 1.017,2
01:54 6,3 2,9 4,9 79,0 12,2 258 - 0,0 0 1.017,3
01:53 6,2 2,9 4,8 79,2 12,1 260 - 0,0 0 1.017,3
01:52 6,2 3,0 4,9 80,0 11,8 262 - 0,0 0 1.017,3
01:51 6,2 2,9 4,8 79,6 11,3 262 - 0,0 0 1.017,4
01:50 6,2 2,8 4,8 79,0 11,3 261 - 0,0 0 1.017,3
01:49 6,2 2,8 4,8 79,0 11,9 259 - 0,0 0 1.017,3
01:48 6,2 2,8 4,8 79,0 12,1 255 - 0,0 0 1.017,3
01:47 6,2 2,9 4,8 79,2 10,4 252 - 0,0 0 1.017,4
01:46 6,2 3,0 4,9 80,0 9,7 249 13,0 0,0 0 1.017,4
01:45 6,1 2,9 4,8 80,0 10,0 249 13,4 0,0 0 1.017,5
01:44 6,2 3,0 4,9 80,0 10,7 250 - 0,0 0 1.017,5
01:43 6,2 2,9 4,8 79,3 10,6 253 - 0,0 0 1.017,5
01:42 6,1 2,7 4,7 79,1 10,6 257 - 0,0 0 1.017,5
01:41 6,1 2,9 4,8 80,0 10,9 260 - 0,0 0 1.017,5
01:40 6,1 2,9 4,8 80,0 10,8 262 - 0,0 0 1.017,6
01:39 6,0 2,8 4,7 80,0 10,6 263 - 0,0 0 1.017,6
01:38 6,0 2,8 4,7 80,0 10,5 262 - 0,0 0 1.017,6
01:37 6,0 2,7 4,6 79,3 10,4 259 - 0,0 0 1.017,6
01:36 6,1 2,7 4,7 79,0 10,3 256 - 0,0 0 1.017,6
01:35 6,1 2,7 4,7 79,0 10,5 253 - 0,0 0 1.017,5
01:34 6,1 2,7 4,7 79,0 10,4 249 - 0,0 0 1.017,5
01:33 6,2 2,8 4,8 79,0 10,6 247 - 0,0 0 1.017,5
01:32 6,2 2,8 4,8 79,0 10,7 247 - 0,0 0 1.017,5
01:31 6,2 2,8 4,8 79,0 10,8 249 - 0,0 0 1.017,4
01:30 6,2 2,8 4,8 79,0 10,4 252 - 0,0 0 1.017,5
01:29 6,2 2,8 4,8 79,0 10,8 257 - 0,0 0 1.017,5
01:28 6,2 2,8 4,8 79,0 10,8 260 - 0,0 0 1.017,5
01:27 6,2 2,8 4,8 79,0 10,6 261 - 0,0 0 1.017,5
01:26 6,2 2,8 4,8 79,0 10,5 260 - 0,0 0 1.017,5
01:25 6,2 2,8 4,8 79,0 9,8 257 - 0,0 0 1.017,4
01:24 6,1 2,7 4,7 79,0 9,8 253 - 0,0 0 1.017,4
01:23 6,1 2,7 4,7 79,0 9,9 251 - 0,0 0 1.017,5
01:22 6,1 2,7 4,7 79,0 10,1 250 - 0,0 0 1.017,5
01:21 6,1 2,7 4,7 79,0 9,7 251 - 0,0 0 1.017,5
01:20 6,1 2,9 4,7 79,7 9,6 253 - 0,0 0 1.017,5
01:19 6,1 2,9 4,8 80,0 9,7 253 - 0,0 0 1.017,5
01:18 6,1 2,9 4,8 80,0 9,9 253 - 0,0 0 1.017,6
01:17 6,1 2,9 4,8 80,0 10,0 253 - 0,0 0 1.017,5
01:16 6,1 2,9 4,8 80,0 9,9 253 - 0,0 0 1.017,5
01:15 6,0 2,8 4,7 80,0 9,8 254 - 0,0 0 1.017,6
01:14 6,1 2,9 4,8 80,0 9,7 254 - 0,0 0 1.017,6
01:13 6,1 2,9 4,8 80,0 9,8 253 - 0,0 0 1.017,6
01:12 6,2 3,0 4,9 79,9 10,0 252 - 0,0 0 1.017,5
01:11 6,2 2,8 4,8 79,0 9,3 253 - 0,0 0 1.017,5
01:10 6,2 2,9 4,8 79,5 9,3 254 12,5 0,0 0 1.017,5
01:09 6,2 2,9 4,8 79,4 9,7 256 - 0,0 0 1.017,5
01:08 6,2 2,8 4,8 79,0 10,8 258 - 0,0 0 1.017,5
01:07 6,2 2,8 4,8 79,0 10,8 260 - 0,0 0 1.017,4
01:06 6,2 2,8 4,8 79,0 10,9 262 - 0,0 0 1.017,4
01:05 6,2 2,8 4,8 79,0 11,2 262 - 0,0 0 1.017,4
01:04 6,2 2,9 4,8 79,5 11,5 261 - 0,0 0 1.017,4
01:03 6,2 3,0 4,9 80,0 11,4 261 - 0,0 0 1.017,5
01:02 6,2 3,0 4,9 80,0 11,2 261 - 0,0 0 1.017,5
01:01 6,2 3,0 4,9 80,0 11,2 261 - 0,0 0 1.017,5
01:00 6,2 3,0 4,9 80,0 11,4 261 - 0,0 0 1.017,4
 
00:59 6,1 2,9 4,8 80,0 11,2 260 - 0,0 0 1.017,4
00:58 6,2 3,0 4,9 80,0 10,8 260 - 0,0 0 1.017,5
00:57 6,2 2,9 4,8 79,4 10,6 258 - 0,0 0 1.017,5
00:56 6,2 2,8 4,8 79,0 10,9 256 - 0,0 0 1.017,5
00:55 6,3 2,9 4,9 79,0 11,3 255 - 0,0 0 1.017,5
00:54 6,3 2,9 4,9 79,0 11,4 255 - 0,0 0 1.017,5
00:53 6,3 2,9 4,9 79,0 11,3 256 - 0,0 0 1.017,5
00:52 6,3 2,9 4,9 79,0 11,4 257 - 0,0 0 1.017,5
00:51 6,3 2,9 4,9 79,0 11,8 259 - 0,0 0 1.017,5
00:50 6,3 2,9 4,9 79,0 11,8 260 - 0,0 0 1.017,5
00:49 6,3 2,9 4,9 79,0 11,5 260 - 0,0 0 1.017,5
00:48 6,3 2,9 4,9 79,0 11,1 258 14,8 0,0 0 1.017,5
00:47 6,3 2,9 4,9 79,0 10,8 254 - 0,0 0 1.017,5
00:46 6,3 2,8 4,8 78,5 10,6 252 - 0,0 0 1.017,6
00:45 6,3 2,7 4,8 78,0 10,7 251 - 0,0 0 1.017,5
00:44 6,4 2,8 4,9 78,0 11,3 251 - 0,0 0 1.017,6
00:43 6,4 2,9 4,9 78,1 11,6 252 - 0,0 0 1.017,6
00:42 6,3 2,9 4,9 78,8 12,1 254 - 0,0 0 1.017,6
00:41 6,3 2,8 4,8 78,4 11,9 257 - 0,0 0 1.017,6
00:40 6,4 2,9 4,9 78,5 11,9 259 - 0,0 0 1.017,6
00:39 6,2 2,8 4,8 78,7 12,0 259 - 0,0 0 1.017,6
00:38 6,2 2,8 4,8 79,0 11,9 258 - 0,0 0 1.017,6
00:37 6,1 2,7 4,7 79,0 11,5 257 - 0,0 0 1.017,7
00:36 6,1 2,7 4,7 79,0 11,2 257 - 0,0 0 1.017,8
00:35 6,1 2,7 4,7 79,0 10,9 257 - 0,0 0 1.017,8
00:34 6,1 2,7 4,7 79,0 10,5 257 - 0,0 0 1.017,8
00:33 6,1 2,7 4,7 79,0 10,1 257 - 0,0 0 1.017,8
00:32 6,1 2,7 4,7 79,0 9,8 257 - 0,0 0 1.017,9
00:31 6,1 2,7 4,7 79,0 9,9 256 - 0,0 0 1.017,9
00:30 6,1 2,7 4,7 79,0 10,1 254 - 0,0 0 1.017,9
00:29 6,1 2,7 4,7 79,0 10,3 253 - 0,0 0 1.017,9
00:28 6,1 2,7 4,7 79,0 10,1 253 - 0,0 0 1.018,0
00:27 6,1 2,7 4,7 79,0 9,8 254 - 0,0 0 1.018,0
00:26 6,2 2,7 4,7 78,1 9,6 255 - 0,0 0 1.018,0
00:25 6,2 2,6 4,7 78,0 9,6 257 - 0,0 0 1.018,0
00:24 6,2 2,6 4,7 78,0 9,6 257 - 0,0 0 1.018,0
00:23 6,2 2,6 4,7 78,0 9,6 257 - 0,0 0 1.018,0
00:22 6,2 2,6 4,7 78,0 9,7 257 - 0,0 0 1.017,9
00:21 6,2 2,6 4,7 78,0 9,5 257 - 0,0 0 1.017,9
00:20 6,3 2,6 4,7 77,1 9,4 258 - 0,0 0 1.017,9
00:19 6,3 2,6 4,7 77,0 9,7 258 - 0,0 0 1.017,9
00:18 6,3 2,6 4,7 77,0 10,1 257 - 0,0 0 1.017,8
00:17 6,3 2,6 4,7 77,0 10,6 256 - 0,0 0 1.017,8
00:16 6,3 2,7 4,8 77,7 10,8 255 - 0,0 0 1.017,9
00:15 6,2 2,6 4,7 78,0 10,7 254 - 0,0 0 1.017,9
00:14 6,3 2,7 4,8 78,0 10,3 252 - 0,0 0 1.018,0
00:13 6,1 2,6 4,6 78,2 9,5 252 - 0,0 0 1.018,0
00:12 6,3 2,9 4,9 79,0 8,8 252 - 0,0 0 1.018,1
00:11 6,2 2,8 4,8 79,0 8,8 253 12,5 0,0 0 1.018,1
00:10 6,1 2,7 4,7 79,0 9,2 254 - 0,0 0 1.018,1
00:09 6,0 2,6 4,6 79,0 8,7 254 - 0,0 0 1.018,2
00:08 6,1 2,7 4,7 79,0 8,6 254 - 0,0 0 1.018,3
00:07 6,0 2,6 4,6 79,0 8,3 254 11,6 0,0 0 1.018,3
00:06 6,0 2,6 4,6 79,0 8,2 254 - 0,0 0 1.018,4
00:05 6,0 2,6 4,6 79,0 8,1 254 - 0,0 0 1.018,3
00:04 5,9 2,5 4,5 79,0 8,4 255 - 0,0 0 1.018,3
00:03 6,0 2,7 4,6 79,2 8,4 257 - 0,0 0 1.018,3
00:02 5,9 2,7 4,6 80,0 8,6 260 - 0,0 0 1.018,3
00:01 5,9 2,7 4,6 80,0 9,0 262 - 0,0 0 1.018,3
00:00 5,9 2,7 4,6 80,0 9,1 264 - 0,0 0 1.018,3
 
23:59 5,8 2,6 4,5 80,0 9,0 266 - 0,0 0 1.018,4
23:58 5,8 2,6 4,5 80,0 8,8 268 - 0,0 0 1.018,4
23:57 5,8 2,6 4,5 80,0 8,8 269 - 0,0 0 1.018,4
23:56 5,8 2,6 4,5 80,0 8,8 269 - 0,0 0 1.018,3
23:55 5,9 2,7 4,6 80,0 8,9 267 - 0,0 0 1.018,3
23:54 5,9 2,6 4,5 79,6 9,1 263 - 0,0 0 1.018,4
23:53 5,9 2,6 4,5 79,6 9,1 259 - 0,0 0 1.018,4
23:52 5,9 2,7 4,6 80,0 9,2 257 - 0,0 0 1.018,3
23:51 5,9 2,7 4,6 80,0 9,4 256 - 0,0 0 1.018,3
23:50 5,8 2,6 4,5 80,0 9,5 256 - 0,0 0 1.018,3
23:49 5,9 2,7 4,6 80,0 9,7 257 - 0,0 0 1.018,3
23:48 5,9 2,6 4,5 79,6 9,5 257 - 0,0 0 1.018,3
23:47 5,9 2,5 4,5 79,0 9,3 257 - 0,0 0 1.018,3
23:46 5,9 2,5 4,5 79,0 8,9 256 - 0,0 0 1.018,3
23:45 5,9 2,5 4,5 79,0 8,9 253 - 0,0 0 1.018,3
23:44 6,0 2,6 4,6 79,0 9,1 252 - 0,0 0 1.018,3
23:43 6,0 2,6 4,6 79,0 9,3 252 - 0,0 0 1.018,3
23:42 6,0 2,6 4,6 79,0 9,4 254 - 0,0 0 1.018,3
23:41 6,0 2,6 4,6 79,0 9,4 257 - 0,0 0 1.018,3
23:40 6,1 2,7 4,7 79,0 9,5 259 - 0,0 0 1.018,2
23:39 6,1 2,7 4,7 79,0 9,6 259 - 0,0 0 1.018,2
23:38 6,1 2,7 4,7 78,8 9,8 258 - 0,0 0 1.018,2
23:37 6,1 2,6 4,6 78,5 10,0 255 - 0,0 0 1.018,2
23:36 6,1 2,6 4,6 78,5 10,1 253 - 0,0 0 1.018,2
23:35 6,1 2,6 4,6 78,0 10,3 253 - 0,0 0 1.018,2
23:34 6,1 2,6 4,6 78,0 10,9 255 - 0,0 0 1.018,2
23:33 6,1 2,6 4,6 78,0 11,1 257 - 0,0 0 1.018,2
23:32 6,1 2,6 4,6 78,0 11,6 259 - 0,0 0 1.018,2
23:31 6,2 2,6 4,7 78,0 11,6 262 - 0,0 0 1.018,3
23:30 6,2 2,6 4,7 78,0 11,4 263 - 0,0 0 1.018,3
23:29 6,2 2,6 4,7 78,0 11,5 262 - 0,0 0 1.018,4
23:28 6,2 2,6 4,7 78,0 11,7 259 - 0,0 0 1.018,3
23:27 6,3 2,7 4,8 78,0 12,0 257 - 0,0 0 1.018,3
23:26 6,3 2,7 4,8 78,0 12,0 256 - 0,0 0 1.018,3
23:25 6,3 2,7 4,8 78,0 12,4 255 - 0,0 0 1.018,2
23:24 6,2 2,6 4,7 78,0 12,4 255 - 0,0 0 1.018,2
23:23 6,2 2,6 4,7 78,0 12,6 255 - 0,0 0 1.018,1
23:22 6,2 2,6 4,7 78,0 12,2 256 - 0,0 0 1.018,1
23:21 6,2 2,6 4,7 78,0 12,0 256 - 0,0 0 1.018,2
23:20 6,2 2,6 4,7 78,0 11,7 255 - 0,0 0 1.018,2
23:19 6,2 2,6 4,7 78,0 10,7 253 - 0,0 0 1.018,2
23:18 6,1 2,6 4,6 78,0 10,2 251 - 0,0 0 1.018,2
23:17 6,2 2,6 4,7 78,0 10,3 250 - 0,0 0 1.018,2
23:16 6,2 2,6 4,7 78,0 10,3 250 - 0,0 0 1.018,2
23:15 6,2 2,6 4,7 78,0 10,4 251 - 0,0 0 1.018,3
23:14 6,2 2,6 4,7 78,0 10,8 252 - 0,0 0 1.018,2
23:13 6,2 2,6 4,7 78,0 11,4 252 - 0,0 0 1.018,2
23:12 6,2 2,6 4,7 78,0 11,6 252 - 0,0 0 1.018,2
23:11 6,2 2,6 4,7 78,0 9,9 252 - 0,0 0 1.018,2
23:10 6,2 2,6 4,7 78,0 9,4 253 13,4 0,0 0 1.018,2
23:09 6,2 2,6 4,7 78,0 9,5 255 - 0,0 0 1.018,2
23:08 6,2 2,6 4,7 77,7 10,9 257 - 0,0 0 1.018,3
23:07 6,2 2,5 4,6 77,0 11,0 259 - 0,0 0 1.018,2
23:06 6,2 2,5 4,6 77,0 11,2 259 - 0,0 0 1.018,2
23:05 6,2 2,5 4,6 77,1 11,3 256 - 0,0 0 1.018,2
23:04 6,2 2,6 4,7 78,0 10,3 253 - 0,0 0 1.018,2
23:03 6,2 2,6 4,7 78,0 9,9 250 13,0 0,0 0 1.018,2
23:02 6,2 2,6 4,7 78,0 10,1 248 - 0,0 0 1.018,3
23:01 6,2 2,6 4,7 78,0 10,7 248 - 0,0 0 1.018,3
23:00 6,1 2,6 4,6 78,0 10,6 250 - 0,0 0 1.018,3
 
22:59 6,1 2,6 4,6 78,0 10,4 253 - 0,0 0 1.018,4
22:58 6,1 2,6 4,6 78,0 10,2 256 - 0,0 0 1.018,5
22:57 6,2 2,6 4,7 78,0 10,5 259 - 0,0 0 1.018,5
22:56 6,2 2,6 4,7 78,0 10,7 263 - 0,0 0 1.018,6
22:55 6,2 2,6 4,7 78,0 10,9 266 - 0,0 0 1.018,6
22:54 6,1 2,6 4,6 78,0 10,9 268 - 0,0 0 1.018,6
22:53 6,1 2,6 4,6 78,0 10,8 267 - 0,0 0 1.018,6
22:52 6,1 2,6 4,6 78,0 10,5 266 - 0,0 0 1.018,6
22:51 6,1 2,6 4,6 78,0 10,1 263 - 0,0 0 1.018,5
22:50 6,2 2,6 4,7 78,0 10,1 261 - 0,0 0 1.018,5
22:49 6,1 2,6 4,6 78,0 10,3 258 - 0,0 0 1.018,5
22:48 6,1 2,6 4,6 78,0 10,3 256 - 0,0 0 1.018,6
22:47 6,1 2,6 4,6 78,0 10,2 256 - 0,0 0 1.018,6
22:46 6,1 2,6 4,6 78,0 9,9 256 - 0,0 0 1.018,6
22:45 6,1 2,6 4,6 78,0 9,8 256 - 0,0 0 1.018,7
22:44 6,2 2,6 4,7 78,0 9,8 257 - 0,0 0 1.018,7
22:43 6,2 2,6 4,7 78,0 9,8 258 - 0,0 0 1.018,7
22:42 6,2 2,6 4,7 78,0 9,8 259 - 0,0 0 1.018,7
22:41 6,2 2,6 4,7 78,0 9,9 259 - 0,0 0 1.018,7
22:40 6,1 2,6 4,6 78,0 9,8 258 - 0,0 0 1.018,7
22:39 6,1 2,6 4,6 78,3 9,2 254 - 0,0 0 1.018,7
22:38 6,0 2,6 4,6 79,0 9,1 250 - 0,0 0 1.018,6
22:37 6,0 2,6 4,6 79,0 8,9 246 - 0,0 0 1.018,6
22:36 5,9 2,5 4,5 79,0 8,8 243 - 0,0 0 1.018,6
22:35 5,9 2,7 4,6 79,9 8,8 242 - 0,0 0 1.018,6
22:34 5,9 2,7 4,6 80,0 8,7 243 - 0,0 0 1.018,6
22:33 5,9 2,7 4,6 80,0 8,5 247 - 0,0 0 1.018,6
22:32 5,8 2,6 4,5 80,0 8,4 251 - 0,0 0 1.018,7
22:31 5,8 2,6 4,5 80,0 9,1 256 - 0,0 0 1.018,7
22:30 5,8 2,6 4,5 80,0 9,0 260 - 0,0 0 1.018,7
22:29 5,8 2,6 4,5 80,0 9,0 264 - 0,0 0 1.018,7
22:28 5,9 2,7 4,6 79,9 9,1 265 - 0,0 0 1.018,7
22:27 5,9 2,5 4,5 79,0 9,2 266 - 0,0 0 1.018,7
22:26 6,0 2,6 4,6 79,0 9,2 266 - 0,0 0 1.018,7
22:25 6,0 2,6 4,6 79,0 9,2 266 - 0,0 0 1.018,7
22:24 6,1 2,6 4,6 78,3 9,5 265 - 0,0 0 1.018,7
22:23 6,1 2,6 4,6 78,0 9,8 264 - 0,0 0 1.018,7
22:22 6,0 2,6 4,6 79,0 9,8 263 - 0,0 0 1.018,7
22:21 6,0 2,6 4,6 79,0 9,7 263 - 0,0 0 1.018,7
22:20 6,0 2,6 4,6 79,0 9,6 263 - 0,0 0 1.018,7
22:19 6,0 2,6 4,6 79,0 9,7 263 - 0,0 0 1.018,7
22:18 6,0 2,6 4,6 79,0 9,6 264 - 0,0 0 1.018,7
22:17 6,0 2,6 4,6 79,0 9,1 265 - 0,0 0 1.018,8
22:16 6,0 2,6 4,6 79,0 9,1 265 - 0,0 0 1.018,8
22:15 6,1 2,7 4,7 79,0 9,3 264 - 0,0 0 1.018,8
22:14 6,1 2,7 4,7 79,0 9,7 261 - 0,0 0 1.018,7
22:13 6,1 2,7 4,7 79,0 9,1 259 - 0,0 0 1.018,7
22:12 6,1 2,7 4,7 79,0 9,1 257 - 0,0 0 1.018,7
22:11 6,1 2,7 4,7 79,0 9,6 257 - 0,0 0 1.018,8
22:10 6,0 2,6 4,6 79,0 10,2 258 - 0,0 0 1.018,8
22:09 6,0 2,6 4,6 79,0 10,3 259 - 0,0 0 1.018,8
22:08 6,0 2,6 4,6 79,0 10,1 261 - 0,0 0 1.018,8
22:07 6,1 2,7 4,7 79,0 10,0 261 - 0,0 0 1.018,8
22:06 6,1 2,7 4,7 79,0 9,9 261 - 0,0 0 1.018,8
22:05 6,1 2,7 4,7 78,9 9,9 259 - 0,0 0 1.018,8
22:04 6,1 2,6 4,6 78,3 9,3 258 - 0,0 0 1.018,9
22:03 6,1 2,7 4,7 78,7 9,2 257 - 0,0 0 1.018,9
22:02 6,1 2,6 4,6 78,5 9,7 256 - 0,0 0 1.018,9
22:01 6,1 2,7 4,7 79,0 10,3 255 - 0,0 0 1.018,9
22:00 6,1 2,6 4,6 78,2 10,3 255 - 0,0 0 1.018,9
 
21:59 6,1 2,7 4,7 78,9 10,1 256 - 0,0 0 1.018,9
21:58 6,1 2,6 4,6 78,0 10,1 258 - 0,0 0 1.019,0
21:57 6,2 2,6 4,7 78,0 10,3 260 - 0,0 0 1.018,9
21:56 6,2 2,6 4,7 78,0 10,7 263 - 0,0 0 1.018,9
21:55 6,2 2,6 4,7 78,0 10,7 267 - 0,0 0 1.019,0
21:54 6,2 2,6 4,7 78,0 10,8 269 - 0,0 0 1.019,0
21:53 6,1 2,7 4,7 79,0 10,7 271 - 0,0 0 1.019,0
21:52 6,1 2,7 4,7 79,0 10,5 271 - 0,0 0 1.019,0
21:51 6,1 2,7 4,7 79,0 10,4 271 - 0,0 0 1.019,0
21:50 6,1 2,7 4,7 79,0 10,4 269 - 0,0 0 1.019,0
21:49 6,1 2,7 4,7 79,0 10,4 268 - 0,0 0 1.019,0
21:48 6,1 2,7 4,7 79,0 10,6 267 - 0,0 0 1.019,0
21:47 6,1 2,7 4,7 79,0 10,9 267 - 0,0 0 1.019,0
21:46 6,1 2,7 4,7 78,7 11,0 267 - 0,0 0 1.019,0
21:45 6,1 2,6 4,6 78,0 11,1 268 - 0,0 0 1.019,0
21:44 6,2 2,6 4,7 78,0 11,1 268 - 0,0 0 1.019,0
21:43 6,2 2,6 4,7 78,0 11,2 267 - 0,0 0 1.019,0
21:42 6,2 2,6 4,7 78,0 11,1 266 - 0,0 0 1.018,9
21:41 6,2 2,6 4,7 78,0 11,1 266 - 0,0 0 1.018,9
21:40 6,2 2,6 4,7 78,0 11,1 265 - 0,0 0 1.019,0
21:39 6,2 2,6 4,7 78,0 11,2 264 - 0,0 0 1.019,0
21:38 6,2 2,6 4,7 78,0 11,4 264 - 0,0 0 1.018,9
21:37 6,2 2,6 4,7 78,0 11,5 265 - 0,0 0 1.018,9
21:36 6,2 2,6 4,7 78,0 11,5 265 - 0,0 0 1.018,8
21:35 6,2 2,6 4,7 78,0 11,5 265 - 0,0 0 1.018,9
21:34 6,3 2,7 4,8 78,0 11,5 263 - 0,0 0 1.018,9
21:33 6,3 2,7 4,8 78,0 11,5 262 - 0,0 0 1.018,9
21:32 6,3 2,7 4,8 78,0 11,5 261 - 0,0 0 1.018,9
21:31 6,3 2,7 4,8 78,0 11,4 260 - 0,0 0 1.018,9
21:30 6,3 2,7 4,8 78,0 11,4 259 - 0,0 0 1.018,9
21:29 6,3 2,7 4,8 78,0 11,4 257 - 0,0 0 1.018,9
21:28 6,3 2,7 4,8 78,0 11,3 255 - 0,0 0 1.019,0
21:27 6,2 2,7 4,7 78,5 10,6 255 - 0,0 0 1.019,0
21:26 6,2 2,8 4,8 79,0 10,1 253 - 0,0 0 1.019,0
21:25 6,2 2,8 4,8 79,0 9,7 252 - 0,0 0 1.019,1
21:24 6,1 2,7 4,7 79,0 9,8 250 - 0,0 0 1.019,1
21:23 6,1 2,7 4,7 79,0 9,3 251 - 0,0 0 1.019,1
21:22 6,1 2,8 4,7 79,4 8,9 252 - 0,0 0 1.019,1
21:21 6,1 2,9 4,8 80,0 8,7 253 - 0,0 0 1.019,1
21:20 6,1 2,9 4,8 80,0 9,3 255 - 0,0 0 1.019,1
21:19 6,2 3,0 4,9 80,0 9,4 258 - 0,0 0 1.019,1
21:18 6,2 3,0 4,9 80,0 9,5 260 - 0,0 0 1.019,1
21:17 6,2 3,0 4,9 80,0 9,6 261 - 0,0 0 1.019,1
21:16 6,2 3,0 4,9 80,0 9,6 260 - 0,0 0 1.019,1
21:15 6,2 3,0 4,9 80,0 9,7 259 - 0,0 0 1.019,2
21:14 6,2 3,0 4,9 80,0 9,5 258 - 0,0 0 1.019,2
21:13 6,2 3,0 4,9 80,0 9,5 256 - 0,0 0 1.019,1
21:12 6,2 3,0 4,9 80,0 9,6 255 - 0,0 0 1.019,1
21:11 6,2 3,0 4,9 80,0 10,1 255 - 0,0 0 1.019,2
21:10 6,2 3,0 4,9 80,0 10,2 256 - 0,0 0 1.019,2
21:09 6,3 3,1 5,0 80,0 10,3 257 - 0,0 0 1.019,1
21:08 6,3 3,1 5,0 80,0 10,5 257 - 0,0 0 1.019,1
21:07 6,3 3,1 5,0 80,0 10,7 255 - 0,0 0 1.019,2
21:06 6,3 3,1 5,0 80,0 10,8 254 - 0,0 0 1.019,2
21:05 6,3 3,1 5,0 80,0 10,6 253 - 0,0 0 1.019,1
21:04 6,3 3,1 5,0 80,0 10,9 252 - 0,0 0 1.019,1
21:03 6,3 3,1 5,0 80,0 11,1 252 - 0,0 0 1.019,1
21:02 6,3 3,1 5,0 80,0 11,5 254 - 0,0 0 1.019,1
21:01 6,3 3,1 5,0 80,0 11,4 256 - 0,0 0 1.019,1
21:00 6,3 3,1 5,0 80,0 11,2 259 - 0,0 0 1.019,1
 
20:59 6,3 3,1 5,0 80,0 11,2 262 - 0,0 0 1.019,1
20:58 6,3 3,1 5,0 80,0 11,5 264 - 0,0 0 1.019,1
20:57 6,3 3,1 5,0 80,0 11,7 266 - 0,0 0 1.019,1
20:56 6,3 3,1 5,0 80,0 11,6 267 - 0,0 0 1.019,1
20:55 6,3 3,1 5,0 80,1 11,4 268 - 0,0 0 1.019,1
20:54 6,3 3,3 5,0 81,0 11,4 267 - 0,0 0 1.019,1
20:53 6,3 3,3 5,0 81,0 11,4 267 - 0,0 0 1.019,1
20:52 6,3 3,3 5,0 81,0 11,5 267 - 0,0 0 1.019,0
20:51 6,2 3,2 4,9 81,0 11,5 267 - 0,0 0 1.019,0
20:50 6,2 3,2 4,9 81,0 11,4 267 - 0,0 0 1.019,1
20:49 6,2 3,2 4,9 81,0 11,2 268 - 0,0 0 1.019,0
20:48 6,2 3,2 4,9 81,0 11,1 268 - 0,0 0 1.019,1
20:47 6,2 3,2 4,9 81,0 10,8 269 - 0,0 0 1.019,1
20:46 6,2 3,2 4,9 81,0 10,7 269 - 0,0 0 1.019,1
20:45 6,2 3,2 4,9 81,0 10,7 269 - 0,0 0 1.019,1
20:44 6,2 3,2 4,9 81,0 10,7 267 - 0,0 0 1.019,1
20:43 6,3 3,3 5,0 81,0 10,6 264 - 0,0 0 1.019,1
20:42 6,2 3,2 5,0 81,3 10,7 261 - 0,0 0 1.019,1
20:41 6,2 3,3 5,0 81,7 9,7 258 - 0,0 0 1.019,2
20:40 6,2 3,3 5,0 81,5 9,3 255 - 0,0 0 1.019,2
20:39 6,2 3,4 5,0 82,0 9,3 253 - 0,0 0 1.019,1
20:38 6,1 3,3 4,9 82,0 9,8 252 - 0,0 0 1.019,2
20:37 6,1 3,3 4,9 82,0 9,5 254 - 0,0 0 1.019,2
20:36 6,0 3,2 4,8 82,0 9,3 256 - 0,0 0 1.019,2
20:35 6,0 3,2 4,8 82,0 9,3 257 - 0,0 0 1.019,2
20:34 6,1 3,3 4,9 82,0 9,5 258 - 0,0 0 1.019,2
20:33 6,1 3,3 4,9 82,0 9,8 259 - 0,0 0 1.019,2
20:32 6,1 3,3 4,9 82,0 10,1 260 - 0,0 0 1.019,2
20:31 6,1 3,3 4,9 82,0 10,3 260 - 0,0 0 1.019,2
20:30 6,1 3,3 4,9 82,0 10,5 259 - 0,0 0 1.019,2
20:29 6,1 3,3 4,9 82,0 10,4 260 - 0,0 0 1.019,2
20:28 6,1 3,3 4,9 82,0 10,5 261 - 0,0 0 1.019,2
20:27 6,1 3,3 4,9 82,0 10,6 261 - 0,0 0 1.019,2
20:26 6,1 3,3 4,9 82,0 11,0 261 - 0,0 0 1.019,2
20:25 6,1 3,3 4,9 82,0 10,9 261 - 0,0 0 1.019,2
20:24 6,1 3,3 4,9 82,0 10,7 262 - 0,0 0 1.019,2
20:23 6,1 3,3 4,9 82,0 10,6 263 - 0,0 0 1.019,2
20:22 6,1 3,3 4,9 82,0 10,5 263 - 0,0 0 1.019,2
20:21 6,1 3,3 4,9 82,0 10,3 263 - 0,0 0 1.019,2
20:20 6,1 3,3 4,9 82,0 10,4 264 - 0,0 0 1.019,2
20:19 6,1 3,3 4,9 82,0 10,8 264 - 0,0 0 1.019,2
20:18 6,2 3,4 5,0 82,0 10,9 263 - 0,0 0 1.019,2
20:17 6,2 3,4 5,0 82,0 10,8 262 - 0,0 0 1.019,2
20:16 6,2 3,3 5,0 81,4 10,7 262 - 0,0 0 1.019,2
20:15 6,3 3,3 5,0 81,0 11,0 263 - 0,0 0 1.019,2
20:14 6,2 3,2 4,9 81,0 11,4 263 - 0,0 0 1.019,2
20:13 6,2 3,2 5,0 81,3 11,4 264 - 0,0 0 1.019,2
20:12 6,2 3,3 5,0 81,7 11,2 263 - 0,0 0 1.019,2
20:11 6,2 3,2 4,9 81,0 11,1 260 - 0,0 0 1.019,2
20:10 6,3 3,3 5,0 81,0 11,1 255 - 0,0 0 1.019,1
20:09 6,3 3,3 5,0 81,0 9,8 251 - 0,0 0 1.019,1
20:08 6,3 3,3 5,0 81,0 10,2 248 - 0,0 0 1.019,2
20:07 6,3 3,3 5,0 81,0 10,6 245 - 0,0 0 1.019,2
20:06 6,3 3,3 5,1 81,4 11,2 245 - 0,0 0 1.019,2
20:05 6,2 3,4 5,0 82,0 10,7 247 - 0,0 0 1.019,2
20:04 6,2 3,4 5,0 82,0 10,3 249 - 0,0 0 1.019,3
20:03 6,1 3,3 4,9 82,0 9,9 250 - 0,0 0 1.019,3
20:02 6,1 3,3 4,9 82,0 9,7 250 - 0,0 0 1.019,3
20:01 6,1 3,3 4,9 82,0 8,5 252 - 0,0 0 1.019,3
20:00 6,1 3,3 4,9 82,0 8,0 254 - 0,0 0 1.019,3
 
19:59 6,1 3,3 4,9 82,0 8,1 255 - 0,0 0 1.019,3
19:58 6,1 3,3 4,9 82,0 9,1 256 - 0,0 0 1.019,3
19:57 6,1 3,3 4,9 82,0 9,0 258 - 0,0 0 1.019,3
19:56 6,1 3,3 4,9 82,0 8,8 260 - 0,0 0 1.019,3
19:55 6,1 3,3 4,9 82,0 8,9 261 - 0,0 0 1.019,3
19:54 6,1 3,3 4,9 82,0 9,0 260 - 0,0 0 1.019,3
19:53 6,1 3,3 4,9 82,0 9,2 260 - 0,0 0 1.019,3
19:52 6,1 3,3 4,9 82,0 9,3 259 - 0,0 0 1.019,3
19:51 6,1 3,2 4,9 81,9 9,5 258 - 0,0 0 1.019,3
19:50 6,1 3,1 4,9 81,1 9,2 256 - 0,0 0 1.019,3
19:49 6,1 3,1 4,8 81,0 9,4 255 - 0,0 0 1.019,3
19:48 6,1 3,1 4,8 81,0 9,7 255 - 0,0 0 1.019,3
19:47 6,2 3,2 4,9 81,0 10,0 256 - 0,0 0 1.019,3
19:46 6,2 3,2 4,9 81,0 10,1 259 - 0,0 0 1.019,3
19:45 6,2 3,2 4,9 81,0 10,4 262 - 0,0 0 1.019,3
19:44 6,2 3,2 4,9 81,0 10,5 265 - 0,0 0 1.019,2
19:43 6,2 3,2 4,9 81,0 10,7 266 - 0,0 0 1.019,2
19:42 6,2 3,2 4,9 81,0 10,7 267 - 0,0 0 1.019,2
19:41 6,2 3,2 4,9 81,0 10,9 267 - 0,0 0 1.019,2
19:40 6,2 3,2 4,9 81,0 11,1 266 - 0,0 0 1.019,2
19:39 6,3 3,3 5,0 81,0 11,3 265 - 0,0 0 1.019,2
19:38 6,3 3,3 5,0 81,0 11,3 264 - 0,0 0 1.019,1
19:37 6,2 3,2 4,9 81,0 11,2 263 - 0,0 0 1.019,2
19:36 6,2 3,2 4,9 81,0 11,2 262 - 0,0 0 1.019,2
19:35 6,2 3,2 4,9 81,0 10,8 260 - 0,0 0 1.019,2
19:34 6,2 3,2 4,9 81,0 10,8 260 - 0,0 0 1.019,3
19:33 6,2 3,3 5,0 81,9 10,6 259 - 0,0 0 1.019,3
19:32 6,2 3,3 5,0 81,8 10,6 259 - 0,0 0 1.019,5
19:31 6,2 3,3 5,0 81,4 10,4 259 - 0,0 0 1.019,9
19:30 6,2 3,4 5,0 82,0 10,4 259 - 0,0 0 1.019,8
19:29 6,3 3,3 5,1 81,4 10,6 259 - 0,0 0 1.019,8
19:28 6,3 3,3 5,0 81,0 10,4 259 - 0,0 0 1.019,8
19:27 6,3 3,3 5,0 81,0 10,4 260 - 0,0 0 1.019,9
19:26 6,3 3,3 5,1 81,2 10,7 260 - 0,0 0 1.020,0
19:25 6,2 3,4 5,0 82,0 11,2 260 - 0,0 0 1.020,0
19:24 6,2 3,4 5,0 82,0 11,0 261 - 0,0 0 1.019,9
19:23 6,2 3,4 5,0 82,0 10,5 261 - 0,0 0 1.019,9
19:22 6,3 3,5 5,1 82,0 10,2 261 - 0,0 0 1.019,9
19:21 6,3 3,5 5,1 82,0 10,0 261 - 0,0 0 1.019,9
19:20 6,3 3,5 5,1 82,0 10,2 261 - 0,0 0 1.019,9
19:19 6,3 3,5 5,1 82,0 10,3 261 - 0,0 0 1.019,9
19:18 6,3 3,5 5,2 82,5 10,0 262 - 0,0 0 1.019,8
19:17 6,3 3,6 5,2 83,0 9,8 263 - 0,0 0 1.019,7
19:16 6,3 3,6 5,2 82,9 9,8 263 - 0,0 0 1.019,8
19:15 6,3 3,5 5,1 82,0 9,9 262 - 0,0 0 1.019,9
19:14 6,3 3,5 5,1 82,3 9,6 261 - 0,0 0 1.019,9
19:13 6,3 3,6 5,2 83,0 9,6 260 - 0,0 0 1.019,9
19:12 6,3 3,6 5,2 83,0 9,7 259 - 0,0 0 1.019,9
19:11 6,2 3,5 5,1 83,0 9,8 257 - 0,0 0 1.020,0
19:10 6,2 3,5 5,1 83,0 9,8 256 - 0,0 0 1.019,9
19:09 6,2 3,5 5,1 83,0 9,7 256 - 0,0 0 1.019,8
19:08 6,2 3,6 5,1 83,3 9,3 256 - 0,0 0 1.019,9
19:07 6,2 3,7 5,2 84,0 9,2 256 - 0,0 0 1.020,0
19:06 6,1 3,6 5,1 84,0 9,3 256 - 0,0 0 1.019,6
19:05 6,1 3,6 5,1 84,0 9,2 257 - 0,0 0 1.019,2
19:04 6,2 3,7 5,2 84,0 9,0 257 - 0,0 0 1.019,2
19:03 6,2 3,7 5,2 83,9 8,9 257 - 0,0 0 1.019,2
19:02 6,2 3,5 5,1 83,0 9,0 256 - 0,0 0 1.019,1
19:01 6,2 3,5 5,1 83,0 9,2 255 - 0,0 0 1.019,1
19:00 6,2 3,5 5,1 83,0 9,7 255 - 0,0 0 1.019,1
 
18:59 6,2 3,7 5,2 83,8 10,0 254 - 0,0 0 1.019,1
18:58 6,2 3,7 5,2 84,0 9,9 254 - 0,0 0 1.019,1
18:57 6,2 3,7 5,2 84,0 9,9 255 - 0,0 0 1.019,1
18:56 6,2 3,7 5,2 84,0 9,9 256 - 0,0 0 1.019,1
18:55 6,2 3,7 5,2 84,0 9,9 258 - 0,0 0 1.019,0
18:54 6,1 3,6 5,1 84,0 10,0 259 - 0,0 0 1.019,0
18:53 6,2 3,7 5,2 84,0 10,4 259 - 0,0 0 1.019,1
18:52 6,1 3,6 5,1 84,0 10,7 258 - 0,0 0 1.019,0
18:51 6,1 3,6 5,1 84,0 10,4 257 - 0,0 0 1.019,0
18:50 6,1 3,6 5,1 84,0 10,3 255 - 0,0 0 1.019,0
18:49 6,1 3,6 5,1 84,0 10,4 254 - 0,0 0 1.019,0
18:48 6,1 3,6 5,1 84,0 10,4 254 - 0,0 0 1.019,0
18:47 6,1 3,6 5,1 84,0 10,3 255 - 0,0 0 1.019,0
18:46 6,0 3,5 5,0 84,0 10,0 257 - 0,0 0 1.019,0
18:45 6,1 3,6 5,1 84,0 9,9 260 - 0,0 0 1.019,0
18:44 6,1 3,6 5,1 84,0 9,6 262 - 0,0 0 1.019,0
18:43 6,1 3,6 5,1 84,0 9,7 264 - 0,0 0 1.019,0
18:42 6,2 3,6 5,1 83,4 10,1 266 - 0,0 0 1.019,0
18:41 6,2 3,5 5,1 83,0 10,4 267 - 0,0 0 1.019,0
18:40 6,2 3,5 5,1 83,0 10,7 268 - 0,0 0 1.019,0
18:39 6,3 3,6 5,2 83,0 10,9 268 - 0,0 0 1.019,0
18:38 6,3 3,6 5,2 83,0 11,0 267 - 0,0 0 1.019,0
18:37 6,3 3,6 5,2 83,0 11,1 267 - 0,0 0 1.018,9
18:36 6,3 3,6 5,2 83,0 11,1 266 - 0,0 0 1.019,0
18:35 6,4 3,7 5,3 83,0 11,1 266 - 0,0 0 1.018,9
18:34 6,4 3,7 5,3 83,0 11,0 264 - 0,0 0 1.018,9
18:33 6,4 3,7 5,3 83,0 11,1 264 - 0,0 0 1.019,0
18:32 6,4 3,7 5,3 83,0 11,3 263 - 0,0 0 1.018,9
18:31 6,4 3,7 5,3 83,0 11,3 263 - 0,0 0 1.018,9
18:30 6,4 3,7 5,3 83,0 11,2 262 - 0,0 0 1.019,0
18:29 6,4 3,7 5,3 83,0 11,0 261 - 0,0 0 1.019,0
18:28 6,4 3,7 5,3 83,0 10,8 261 - 0,0 0 1.019,0
18:27 6,4 3,7 5,3 83,0 10,6 262 - 0,0 0 1.019,0
18:26 6,4 3,7 5,3 83,0 10,7 262 - 0,0 0 1.019,0
18:25 6,4 3,7 5,3 83,0 11,0 262 - 0,0 0 1.019,0
18:24 6,4 3,7 5,3 83,0 11,2 263 - 0,0 0 1.019,0
18:23 6,4 3,7 5,3 83,0 11,3 264 - 0,0 0 1.019,0
18:22 6,4 3,7 5,3 83,0 11,4 264 - 0,0 0 1.019,0
18:21 6,4 3,7 5,3 83,0 11,5 264 - 0,0 0 1.019,0
18:20 6,4 3,7 5,3 83,0 11,2 264 - 0,0 0 1.019,0
18:19 6,4 3,7 5,3 83,0 11,2 265 - 0,0 0 1.019,0
18:18 6,4 3,7 5,3 83,0 11,3 266 - 0,0 0 1.019,0
18:17 6,4 3,7 5,3 83,0 11,3 267 - 0,0 0 1.019,0
18:16 6,4 3,7 5,3 83,0 11,1 268 - 0,0 0 1.018,9
18:15 6,4 3,8 5,3 83,3 11,0 268 - 0,0 0 1.019,0
18:14 6,4 3,9 5,4 84,0 10,9 268 - 0,0 0 1.019,0
18:13 6,4 3,9 5,4 84,0 10,9 266 - 0,0 0 1.019,0
18:12 6,4 3,9 5,4 84,0 10,8 265 - 0,0 0 1.019,0
18:11 6,4 3,9 5,4 84,0 11,0 264 - 0,0 0 1.018,9
18:10 6,4 3,9 5,4 84,0 11,1 264 - 0,0 0 1.018,9
18:09 6,3 3,8 5,3 84,0 11,1 264 - 0,0 0 1.019,0
18:08 6,3 3,8 5,3 84,0 11,0 265 - 0,0 0 1.019,0
18:07 6,3 3,8 5,3 84,0 11,0 266 - 0,0 0 1.019,0
18:06 6,3 3,8 5,3 84,0 10,9 266 - 0,0 0 1.018,9
18:05 6,3 3,8 5,3 84,0 11,0 267 - 0,0 0 1.018,9
18:04 6,3 3,8 5,3 84,0 10,8 267 - 0,0 0 1.018,9
18:03 6,3 3,8 5,3 84,0 10,5 267 - 0,0 0 1.018,9
18:02 6,3 3,8 5,3 84,0 10,7 267 - 0,0 0 1.018,9
18:01 6,3 3,8 5,3 84,0 11,1 267 - 0,0 0 1.018,9
18:00 6,3 3,8 5,3 84,0 11,2 267 - 0,0 0 1.018,9
 
17:59 6,3 3,8 5,3 84,0 11,0 266 - 0,0 0 1.018,8
17:58 6,3 3,8 5,3 84,0 11,0 264 - 0,0 0 1.018,8
17:57 6,4 3,9 5,4 84,0 10,9 263 - 0,0 0 1.018,8
17:56 6,4 3,9 5,4 84,0 10,9 263 - 0,0 0 1.018,8
17:55 6,4 3,9 5,4 84,0 11,1 263 - 0,0 0 1.018,8
17:54 6,4 3,8 5,3 83,2 11,0 264 - 0,0 0 1.018,9
17:53 6,4 3,7 5,3 83,0 11,0 266 - 0,0 0 1.018,9
17:52 6,4 3,7 5,3 83,0 11,0 267 - 0,0 0 1.018,8
17:51 6,4 3,7 5,3 83,0 11,0 268 - 0,0 0 1.018,8
17:50 6,4 3,7 5,3 83,0 10,9 268 - 0,0 0 1.018,8
17:49 6,4 3,7 5,3 83,0 10,7 267 - 0,0 0 1.018,8
17:48 6,4 3,7 5,3 83,0 10,5 265 - 0,0 0 1.018,8
17:47 6,5 3,7 5,3 82,1 10,5 263 - 0,0 0 1.018,8
17:46 6,5 3,6 5,3 82,0 10,7 261 - 0,0 0 1.018,8
17:45 6,5 3,6 5,3 82,0 11,0 261 - 0,0 0 1.018,9
17:44 6,5 3,6 5,3 82,0 11,1 261 - 0,0 0 1.018,9
17:43 6,6 3,7 5,4 82,0 11,0 262 - 0,0 0 1.018,8
17:42 6,6 3,7 5,4 82,0 11,1 264 - 0,0 0 1.018,7
17:41 6,6 3,7 5,4 81,9 11,3 267 - 0,0 0 1.018,7
17:40 6,6 3,6 5,3 81,0 11,4 269 - 0,0 0 1.018,7
17:39 6,7 3,7 5,4 81,0 11,7 270 - 0,0 0 1.018,7
17:38 6,7 3,7 5,4 81,0 12,0 271 - 0,0 0 1.018,7
17:37 6,7 3,7 5,4 81,0 12,1 271 - 0,0 0 1.018,7
17:36 6,8 3,8 5,5 81,0 12,5 270 - 0,0 0 1.018,7
17:35 6,8 3,8 5,5 81,0 12,8 270 - 0,0 0 1.018,7
17:34 6,8 3,8 5,6 81,3 13,0 269 - 0,0 0 1.018,6
17:33 6,7 3,8 5,5 82,0 12,9 270 - 0,0 0 1.018,5
17:32 6,7 3,7 5,5 81,4 12,7 270 - 0,0 0 1.018,6
17:31 6,8 3,8 5,5 81,0 12,8 271 - 0,0 0 1.018,7
17:30 6,8 3,8 5,5 81,0 13,1 271 - 0,0 0 1.018,6
17:29 6,8 3,8 5,5 81,2 13,4 271 - 0,0 0 1.018,6
17:28 6,8 3,9 5,6 82,0 13,4 271 - 0,0 0 1.018,6
17:27 6,8 3,9 5,6 82,0 13,3 270 - 0,0 0 1.018,6
17:26 6,8 3,9 5,6 82,0 13,1 270 - 0,0 0 1.018,7
17:25 6,8 3,9 5,6 82,0 13,3 270 - 0,0 1 1.018,7
17:24 6,7 3,8 5,5 82,0 13,4 271 - 0,0 5 1.018,7
17:23 6,7 3,8 5,5 82,0 13,0 272 - 0,0 5 1.018,8
17:22 6,7 3,8 5,5 82,0 12,5 273 - 0,0 5 1.018,8
17:21 6,7 3,8 5,5 82,0 12,2 274 - 0,0 5 1.018,8
17:20 6,8 3,9 5,6 82,0 12,3 276 - 0,0 5 1.018,7
17:19 6,8 3,9 5,6 82,0 12,6 277 - 0,0 5 1.018,7
17:18 6,8 3,9 5,6 82,0 12,9 277 - 0,0 6 1.018,7
17:17 6,9 4,0 5,7 82,0 13,1 276 - 0,0 7 1.018,6
17:16 6,9 4,0 5,7 82,0 13,6 275 - 0,0 7 1.018,6
17:15 6,9 4,0 5,7 82,0 13,6 274 - 0,0 7 1.018,6
17:14 6,9 4,0 5,7 82,0 13,5 274 - 0,0 7 1.018,6
17:13 6,9 4,0 5,7 82,0 13,4 274 - 0,0 8 1.018,6
17:12 6,9 4,0 5,7 82,0 13,5 274 - 0,0 9 1.018,7
17:11 7,0 4,1 5,8 82,0 13,6 274 - 0,0 9 1.018,6
17:10 7,0 4,1 5,8 82,0 13,8 273 - 0,0 11 1.018,5
17:09 7,1 4,2 5,9 82,0 14,1 272 - 0,0 11 1.018,5
17:08 7,1 4,2 5,9 82,0 14,1 270 - 0,0 11 1.018,4
17:07 7,1 4,2 5,9 82,0 14,0 270 - 0,0 13 1.018,4
17:06 7,2 4,3 6,0 82,1 14,2 270 - 0,0 16 1.018,5
17:05 7,2 4,5 6,1 83,0 14,5 272 - 0,0 19 1.018,5
17:04 7,1 4,5 6,0 83,4 14,3 274 - 0,0 18 1.018,4
17:03 7,0 4,5 6,0 84,0 13,9 275 - 0,0 18 1.018,4
17:02 7,0 4,5 6,0 84,0 13,5 275 - 0,0 16 1.018,5
17:01 7,0 4,5 6,0 84,0 13,2 273 - 0,0 18 1.018,5
17:00 7,0 4,5 6,0 84,0 13,2 270 - 0,0 18 1.018,4
 
16:59 7,0 4,5 6,0 84,0 12,8 267 - 0,0 19 1.018,4
16:58 7,0 4,5 6,0 84,0 12,6 265 - 0,0 19 1.018,4
16:57 7,1 4,6 6,1 84,0 12,7 265 - 0,0 19 1.018,4
16:56 7,1 4,6 6,1 84,0 13,2 266 - 0,0 19 1.018,4
16:55 7,1 4,6 6,1 84,0 13,2 268 - 0,0 19 1.018,3
16:54 7,1 4,6 6,1 84,0 13,3 269 - 0,0 19 1.018,3
16:53 7,1 4,6 6,1 84,0 13,4 270 - 0,0 19 1.018,3
16:52 7,1 4,6 6,1 84,0 13,3 271 - 0,0 21 1.018,2
16:51 7,1 4,6 6,1 84,0 13,0 271 - 0,0 21 1.018,2
16:50 7,1 4,6 6,1 84,0 12,5 271 - 0,0 21 1.018,2
16:49 7,1 4,6 6,1 84,0 12,2 271 - 0,0 22 1.018,2
16:48 7,2 4,7 6,2 84,0 12,2 272 - 0,0 22 1.018,3
16:47 7,2 4,7 6,2 84,0 12,6 272 - 0,0 24 1.018,3
16:46 7,2 4,7 6,2 84,0 13,0 272 - 0,0 25 1.018,3
16:45 7,2 4,7 6,2 84,0 12,9 271 - 0,0 25 1.018,3
16:44 7,2 4,7 6,2 84,0 12,7 270 - 0,0 26 1.018,2
16:43 7,2 4,7 6,2 84,0 12,9 268 - 0,0 28 1.018,2
16:42 7,2 4,7 6,2 84,0 13,3 267 - 0,0 36 1.018,2
16:41 7,2 4,7 6,2 84,0 13,4 266 - 0,0 48 1.018,1
16:40 7,2 4,8 6,2 84,5 13,2 265 - 0,0 55 1.018,2
16:39 7,2 4,8 6,3 85,0 13,1 265 - 0,0 61 1.018,2
16:38 7,1 4,7 6,2 85,0 13,3 265 - 0,0 56 1.018,2
16:37 7,1 4,7 6,2 85,0 13,3 265 - 0,0 57 1.018,2
16:36 7,1 4,7 6,2 85,0 13,1 265 - 0,0 60 1.018,2
16:35 7,1 4,7 6,2 85,0 12,9 265 - 0,0 62 1.018,2
16:34 7,1 4,7 6,2 85,0 12,9 266 - 0,0 57 1.018,2
16:33 7,1 4,6 6,1 84,4 12,7 267 - 0,0 56 1.018,2
16:32 7,1 4,7 6,1 84,8 13,4 269 - 0,0 51 1.018,1
16:31 7,1 4,7 6,2 85,0 13,8 270 - 0,0 43 1.018,1
16:30 6,9 4,6 6,0 85,0 13,8 272 - 0,0 35 1.018,1
16:29 6,9 4,6 6,0 85,0 13,2 273 - 0,0 32 1.018,2
16:28 6,9 4,6 6,0 85,0 12,7 274 - 0,0 30 1.018,3
16:27 6,9 4,6 6,0 85,0 12,5 275 - 0,0 32 1.018,3
16:26 6,8 4,5 5,9 85,0 12,6 276 - 0,0 33 1.018,3
16:25 6,8 4,6 5,9 86,0 12,6 277 - 0,0 34 1.018,3
16:24 6,9 4,7 6,0 86,0 12,3 277 - 0,0 42 1.018,3
16:23 6,9 4,7 6,0 85,6 12,2 277 - 0,0 42 1.018,3
16:22 6,9 4,6 6,0 85,0 12,0 277 - 0,0 33 1.018,2
16:21 6,9 4,6 6,0 85,0 12,1 276 - 0,0 32 1.018,2
16:20 7,0 4,7 6,1 85,0 12,3 275 - 0,0 37 1.018,2
16:19 7,1 4,7 6,2 85,0 12,6 273 - 0,0 42 1.018,2
16:18 7,1 4,7 6,2 85,0 12,9 270 - 0,0 42 1.018,1
16:17 7,1 4,7 6,2 85,0 12,8 268 - 0,0 51 1.018,2
16:16 7,1 4,7 6,2 85,0 12,4 267 - 0,0 76 1.018,1
16:15 7,1 4,7 6,2 85,0 12,4 266 - 0,0 80 1.018,1
16:14 7,1 4,9 6,2 85,9 12,5 266 - 0,0 82 1.018,0
16:13 7,1 4,8 6,2 85,1 12,7 267 - 0,0 72 1.018,1
16:12 7,1 4,7 6,2 85,0 12,6 268 - 0,0 72 1.018,1
16:11 7,1 4,7 6,2 85,0 12,8 270 - 0,0 95 1.018,1
16:10 7,1 4,8 6,2 85,6 13,0 271 - 0,0 105 1.018,0
16:09 7,1 4,9 6,2 86,0 12,9 271 - 0,0 113 1.018,0
16:08 7,1 4,9 6,2 86,0 12,7 271 - 0,0 121 1.018,0
16:07 7,1 4,9 6,2 86,0 12,5 271 - 0,0 128 1.018,0
16:06 7,1 4,9 6,2 86,0 12,5 271 - 0,0 116 1.018,0
16:05 7,1 4,9 6,2 86,0 12,5 270 - 0,0 102 1.018,0
16:04 7,0 4,8 6,1 86,0 12,6 269 - 0,0 90 1.017,9
16:03 7,0 4,8 6,1 86,0 12,5 268 - 0,0 82 1.017,9
16:02 7,0 4,8 6,1 86,0 12,4 268 - 0,0 93 1.018,0
16:01 7,1 4,9 6,2 86,0 12,4 268 - 0,0 112 1.018,0
16:00 7,0 4,8 6,1 86,0 12,6 268 - 0,0 92 1.018,0
 
15:59 7,0 4,8 6,1 86,0 12,6 268 - 0,0 107 1.018,0
15:58 7,1 4,8 6,2 85,4 12,7 269 - 0,0 75 1.018,0
15:57 7,1 4,7 6,2 85,0 12,9 269 - 0,0 81 1.017,9
15:56 7,1 4,7 6,2 85,0 13,0 268 - 0,0 76 1.017,9
15:55 7,1 4,7 6,2 85,0 12,9 265 - 0,0 68 1.017,9
15:54 7,1 4,7 6,2 85,0 12,9 263 - 0,0 67 1.017,8
15:53 7,2 4,8 6,3 85,0 12,9 261 - 0,0 77 1.017,8
15:52 7,2 5,0 6,3 85,7 13,0 261 - 0,0 80 1.017,8
15:51 7,1 4,9 6,2 86,0 12,8 261 - 0,0 74 1.017,8
15:50 7,1 4,9 6,2 85,9 13,1 262 - 0,0 71 1.017,9
15:49 7,1 4,7 6,2 85,0 12,7 264 - 0,0 85 1.017,9
15:48 7,2 4,8 6,3 85,0 12,7 265 - 0,0 93 1.017,8
15:47 7,2 4,8 6,3 85,0 12,7 265 - 0,0 97 1.017,8
15:46 7,2 4,8 6,3 85,0 13,1 264 - 0,0 96 1.017,8
15:45 7,2 5,0 6,3 85,7 13,0 264 - 0,0 103 1.017,8
15:44 7,2 4,8 6,3 85,0 12,7 265 - 0,0 124 1.017,8
15:43 7,2 4,8 6,3 85,0 12,5 266 - 0,0 133 1.017,9
15:42 7,2 4,8 6,3 85,0 12,9 269 - 0,0 125 1.017,9
15:41 7,2 4,8 6,3 85,0 13,0 271 - 0,0 104 1.017,9
15:40 7,2 4,8 6,3 85,0 13,1 272 - 0,0 85 1.017,9
15:39 7,2 4,8 6,3 85,0 13,4 271 - 0,0 87 1.017,8
15:38 7,2 4,8 6,3 85,0 13,8 268 - 0,0 106 1.017,8
15:37 7,3 4,9 6,4 85,0 14,0 266 - 0,0 113 1.017,8
15:36 7,3 4,9 6,4 85,0 14,3 264 - 0,0 105 1.017,7
15:35 7,3 4,9 6,4 85,0 14,7 264 - 0,0 100 1.017,6
15:34 7,3 4,9 6,4 85,0 15,1 265 - 0,0 135 1.017,6
15:33 7,3 4,8 6,3 84,2 15,3 265 - 0,0 93 1.017,6
15:32 7,4 5,0 6,5 85,0 15,3 266 - 0,0 114 1.017,6
15:31 7,4 5,0 6,4 84,7 15,5 266 - 0,0 146 1.017,5
15:30 7,4 4,9 6,4 84,0 15,7 265 - 0,0 149 1.017,5
15:29 7,4 5,0 6,4 84,6 15,9 264 - 0,0 162 1.017,5
15:28 7,4 5,0 6,5 85,0 16,1 264 - 0,0 155 1.017,4
15:27 7,4 5,0 6,5 85,0 16,1 262 - 0,0 140 1.017,5
15:26 7,3 4,9 6,4 85,0 15,6 260 - 0,0 157 1.017,5
15:25 7,4 5,0 6,5 85,0 15,1 259 - 0,0 168 1.017,5
15:24 7,4 5,0 6,5 85,0 13,2 259 17,9 0,0 172 1.017,5
15:23 7,4 5,0 6,5 85,0 13,2 261 17,4 0,0 112 1.017,4
15:22 7,4 5,0 6,5 85,0 13,6 262 18,8 0,0 170 1.017,4
15:21 7,3 5,0 6,4 85,1 15,8 265 - 0,0 181 1.017,5
15:20 7,4 5,2 6,5 85,8 15,5 267 - 0,0 158 1.017,5
15:19 7,3 4,9 6,4 85,0 15,4 269 18,8 0,0 127 1.017,4
15:18 7,2 4,9 6,3 85,5 14,8 269 - 0,0 113 1.017,5
15:17 7,2 5,0 6,3 86,0 14,2 268 18,3 0,0 105 1.017,5
15:16 7,2 5,0 6,3 86,0 13,8 267 - 0,0 104 1.017,5
15:15 7,2 5,0 6,3 86,0 14,1 267 - 0,0 112 1.017,6
15:14 7,2 5,0 6,3 86,0 14,7 268 - 0,0 134 1.017,5
15:13 7,2 5,0 6,3 86,0 15,1 269 - 0,0 154 1.017,5
15:12 7,2 4,9 6,3 85,5 14,6 269 - 0,0 226 1.017,5
15:11 7,4 5,2 6,5 85,7 14,5 268 - 0,0 238 1.017,5
15:10 7,4 5,2 6,5 86,0 15,6 267 - 0,0 221 1.017,4
15:09 7,3 5,1 6,4 86,0 16,0 258 - 0,0 196 1.017,4
15:08 7,3 5,1 6,4 85,8 15,2 271 - 0,0 129 1.017,5
15:07 7,3 4,9 6,4 85,0 14,5 269 - 0,0 88 1.017,4
15:06 7,4 5,0 6,5 85,0 14,2 262 - 0,0 90 1.017,4
15:05 7,4 5,0 6,5 85,0 15,2 273 - 0,0 125 1.017,4
15:04 7,4 5,0 6,5 85,0 15,3 267 - 0,0 183 1.017,4
15:03 7,3 4,9 6,4 85,0 14,0 262 - 0,0 131 1.017,4
15:02 7,3 4,9 6,4 85,0 14,6 246 - 0,0 101 1.017,3
15:01 7,3 4,9 6,4 85,0 14,6 217 - 0,0 89 1.017,4
15:00 7,4 5,1 6,5 85,6 13,4 271 - 0,0 77 1.017,4
 
14:59 7,4 5,2 6,5 86,0 14,6 266 - 0,0 129 1.017,4
14:58 7,3 5,1 6,4 86,0 14,8 272 - 0,0 90 1.017,3
14:57 7,2 5,2 6,4 87,0 14,1 265 - 0,0 135 1.017,4
14:56 7,4 5,4 6,6 87,0 13,3 272 - 0,0 144 1.017,5